WH6BXK Weather Reports


time (UTC)temp
F
wind
direction
speed
knots
gust
knots
rain 1hr
in
rain 24hr
in
rain mn
in
humidity
%
barometer
mb
20260507160301 75 323 4.3 4.3 0.00 0.00 0.00 86 1020.9
20260507160203 75 334 0.9 4.3 0.00 0.00 0.00 86 1020.9
20260507155902 74 316 2.6 4.3 0.00 0.00 0.00 86 1020.8
20260507155801 74 14 2.6 4.3 0.00 0.00 0.00 86 1020.8
20260507155702 74 5 3.5 4.3 0.00 0.00 0.00 86 1020.8
20260507155603 74 11 2.6 4.3 0.00 0.00 0.00 86 1020.8
20260507155506 74 360 2.6 3.5 0.00 0.00 0.00 86 1020.8
20260507155403 74 330 2.6 4.3 0.00 0.00 0.00 86 1020.8
20260507155301 74 360 3.5 4.3 0.00 0.00 0.00 86 1020.8
20260507155200 74 355 2.6 4.3 0.00 0.00 0.00 86 1020.8
20260507155101 74 24 1.7 4.3 0.00 0.00 0.00 86 1020.7
20260507154901 74 33 1.7 4.3 0.00 0.00 0.00 86 1020.8
20260507154801 74 33 0.9 4.3 0.00 0.00 0.00 86 1020.8
20260507154606 74 13 3.5 3.5 0.00 0.00 0.00 86 1020.7
20260507154457 74 5 2.6 3.5 0.00 0.00 0.00 86 1020.7
20260507154403 74 24 1.7 3.5 0.00 0.00 0.00 86 1020.7
20260507154301 74 24 1.7 3.5 0.00 0.00 0.00 86 1020.7
20260507154102 74 24 2.6 3.5 0.00 0.00 0.00 86 1020.7
20260507153758 74 24 2.6 3.5 0.00 0.00 0.00 86 1020.7
20260507153659 74 36 0.9 3.5 0.00 0.00 0.00 86 1020.7
20260507153600 74 33 3.5 3.5 0.00 0.00 0.00 86 1020.7
20260507153406 74 28 0.9 3.5 0.00 0.00 0.00 86 1020.8
20260507153300 74 28 2.6 3.5 0.00 0.00 0.00 86 1020.7
20260507153202 75 73 0.0 3.5 0.00 0.00 0.00 86 1020.8
20260507153101 75 73 0.9 3.5 0.00 0.00 0.00 86 1020.7
20260507153003 75 36 3.5 3.5 0.00 0.00 0.00 86 1020.7
20260507152859 75 36 0.9 3.5 0.00 0.00 0.00 86 1020.7
20260507152701 75 69 2.6 3.5 0.00 0.00 0.00 86 1020.7
20260507152459 75 69 0.9 3.5 0.00 0.00 0.00 86 1020.6
20260507152159 75 70 1.7 4.3 0.00 0.00 0.00 86 1020.7
20260507152059 75 65 2.6 4.3 0.00 0.00 0.00 86 1020.7
20260507152002 75 76 3.5 4.3 0.00 0.00 0.00 86 1020.6
20260507151859 75 64 0.0 4.3 0.00 0.00 0.00 86 1020.6
20260507151801 75 56 1.7 4.3 0.00 0.00 0.00 86 1020.6
20260507151600 75 15 2.6 4.3 0.00 0.00 0.00 86 1020.6
20260507151459 75 347 3.5 4.3 0.00 0.00 0.00 86 1020.6
20260507151400 75 350 3.5 3.5 0.00 0.00 0.00 86 1020.7
20260507151301 75 326 0.9 5.2 0.00 0.00 0.00 86 1020.6
20260507151202 75 332 3.5 5.2 0.00 0.00 0.00 86 1020.6
20260507151101 75 333 3.5 5.2 0.00 0.00 0.00 86 1020.6
20260507150901 75 29 2.6 5.2 0.00 0.00 0.00 86 1020.6
20260507150803 75 29 1.7 5.2 0.00 0.00 0.00 86 1020.7
20260507150701 75 28 1.7 5.2 0.00 0.00 0.00 86 1020.6
20260507150603 75 15 3.5 5.2 0.00 0.00 0.00 86 1020.6
20260507150401 75 34 2.6 4.3 0.00 0.00 0.00 86 1020.6
20260507150303 75 355 2.6 4.3 0.00 0.00 0.00 86 1020.6
20260507150201 75 349 2.6 4.3 0.00 0.00 0.00 86 1020.6
20260507150002 75 30 0.9 4.3 0.00 0.00 0.00 86 1020.4
20260507145902 75 30 2.6 4.3 0.00 0.00 0.00 86 1020.5
20260507145800 75 28 0.0 4.3 0.00 0.00 0.00 86 1020.5
20260507145659 75 28 0.9 4.3 0.00 0.00 0.00 86 1020.5
20260507145601 75 26 0.9 4.3 0.00 0.00 0.00 86 1020.6
20260507145501 75 9 2.6 4.3 0.00 0.00 0.00 86 1020.5
20260507145403 75 55 2.6 4.3 0.00 0.00 0.00 86 1020.6
20260507145306 75 10 2.6 5.2 0.00 0.00 0.00 86 1020.5
20260507145102 75 44 1.7 7.0 0.00 0.00 0.00 86 1020.5
20260507144801 75 355 1.7 7.0 0.00 0.00 0.00 86 1020.5
20260507144701 75 20 2.6 7.0 0.00 0.00 0.00 86 1020.5
20260507144601 75 5 1.7 7.0 0.00 0.00 0.00 86 1020.5
20260507144502 75 348 2.6 7.0 0.00 0.00 0.00 86 1020.5
20260507144401 75 24 4.3 7.0 0.00 0.00 0.00 85 1020.6
20260507144302 75 15 6.1 7.0 0.00 0.00 0.00 85 1020.5
20260507144201 75 348 2.6 4.3 0.00 0.00 0.00 85 1020.5
20260507144101 75 15 2.6 4.3 0.00 0.00 0.00 85 1020.5
20260507144001 75 5 1.7 3.5 0.00 0.00 0.00 85 1020.5
20260507143901 75 24 2.6 3.5 0.00 0.00 0.00 85 1020.4
20260507143801 75 26 3.5 4.3 0.00 0.00 0.00 85 1020.5
20260507143703 75 36 1.7 4.3 0.00 0.00 0.00 85 1020.5
20260507143602 75 36 1.7 4.3 0.00 0.00 0.00 85 1020.5
20260507143502 75 36 0.9 4.3 0.00 0.00 0.00 85 1020.5
20260507143401 75 36 0.9 4.3 0.00 0.00 0.00 85 1020.5
20260507143301 75 36 1.7 5.2 0.00 0.00 0.00 85 1020.4
20260507143106 75 5 2.6 5.2 0.00 0.00 0.00 85 1020.5
20260507143001 75 355 3.5 5.2 0.00 0.00 0.00 85 1020.5
20260507142902 75 15 1.7 5.2 0.00 0.00 0.00 85 1020.5
20260507142803 75 11 3.5 7.0 0.00 0.00 0.00 85 1020.5
20260507142701 75 46 0.9 7.0 0.00 0.00 0.00 85 1020.4
20260507142601 75 5 1.7 7.0 0.00 0.00 0.00 85 1020.4
20260507142502 75 336 3.5 7.0 0.00 0.00 0.00 85 1020.5
20260507142402 75 355 2.6 7.0 0.00 0.00 0.00 85 1020.5
20260507142301 75 11 2.6 7.0 0.00 0.00 0.00 85 1020.4
20260507142202 75 355 2.6 7.0 0.00 0.00 0.00 85 1020.4
20260507142101 75 24 2.6 7.8 0.00 0.00 0.00 85 1020.5
20260507142002 75 360 5.2 7.8 0.00 0.00 0.00 85 1020.4
20260507141902 75 338 2.6 7.8 0.00 0.00 0.00 85 1020.5
20260507141801 75 317 1.7 7.8 0.00 0.00 0.00 85 1020.5
20260507141701 75 347 3.5 7.8 0.00 0.00 0.00 85 1020.4
20260507141503 75 5 1.7 7.8 0.00 0.00 0.00 85 1020.4
20260507141401 75 5 2.6 7.8 0.00 0.00 0.00 85 1020.5
20260507141309 75 341 5.2 7.8 0.00 0.00 0.00 85 1020.5
20260507141103 75 355 3.5 7.8 0.00 0.00 0.00 85 1020.4
20260507141002 75 5 5.2 7.0 0.00 0.00 0.00 85 1020.5
20260507140900 75 11 3.5 7.8 0.00 0.00 0.00 85 1020.5
20260507140702 75 346 4.3 7.8 0.00 0.00 0.00 85 1020.4
20260507140602 75 319 5.2 7.8 0.00 0.00 0.00 85 1020.4
20260507140403 75 329 5.2 7.8 0.00 0.00 0.00 85 1020.4
20260507140302 75 9 2.6 7.8 0.00 0.00 0.00 85 1020.5
20260507140201 75 327 3.5 7.8 0.00 0.00 0.00 85 1020.5
20260507140001 75 317 2.6 7.0 0.00 0.00 0.00 85 1020.4
20260507135903 75 20 1.7 7.0 0.00 0.00 0.00 85 1020.4
20260507135801 75 355 3.5 7.0 0.00 0.00 0.00 85 1020.5
20260507135701 75 340 3.5 7.0 0.00 0.00 0.00 85 1020.5
20260507135603 75 360 3.5 7.0 0.00 0.00 0.00 85 1020.4
20260507135502 75 329 3.5 7.0 0.00 0.00 0.00 85 1020.4
20260507135402 75 360 1.7 7.0 0.00 0.00 0.00 85 1020.4
20260507135203 75 9 6.1 7.8 0.00 0.00 0.00 85 1020.3
20260507135102 75 344 2.6 7.8 0.00 0.00 0.00 85 1020.4
20260507135002 75 360 4.3 7.8 0.00 0.00 0.00 85 1020.4
20260507134903 75 336 4.3 7.8 0.00 0.00 0.00 85 1020.4
20260507134801 75 5 4.3 7.8 0.00 0.00 0.00 85 1020.4
20260507134703 75 355 7.0 7.8 0.00 0.00 0.00 85 1020.3
20260507134602 75 355 5.2 7.8 0.00 0.00 0.00 85 1020.4
20260507134502 75 344 3.5 7.8 0.00 0.00 0.00 85 1020.4
20260507134402 75 17 4.3 7.0 0.00 0.00 0.00 85 1020.4
20260507134302 75 11 4.3 7.0 0.00 0.00 0.00 85 1020.3
20260507134202 75 346 2.6 8.7 0.00 0.00 0.00 85 1020.4
20260507134101 75 338 4.3 8.7 0.00 0.00 0.00 85 1020.4
20260507134007 75 347 4.3 8.7 0.00 0.00 0.00 85 1020.3
20260507133902 75 360 4.3 8.7 0.00 0.00 0.00 85 1020.4
20260507133802 75 5 3.5 8.7 0.00 0.00 0.00 85 1020.4
20260507133701 75 25 1.7 8.7 0.00 0.00 0.00 85 1020.3
20260507133602 75 360 5.2 8.7 0.00 0.00 0.00 85 1020.3
20260507133503 75 13 3.5 8.7 0.00 0.00 0.00 85 1020.3
20260507133400 75 350 5.2 8.7 0.00 0.00 0.00 85 1020.2
20260507133301 75 19 6.1 8.7 0.00 0.00 0.00 85 1020.3
20260507133203 75 360 7.8 8.7 0.00 0.00 0.00 85 1020.3
20260507133101 75 338 5.2 7.8 0.00 0.00 0.00 85 1020.3
20260507132802 75 355 3.5 7.8 0.00 0.00 0.00 85 1020.2
20260507132701 75 13 3.5 8.7 0.00 0.00 0.00 85 1020.4
20260507132501 75 325 3.5 8.7 0.00 0.00 0.00 85 1020.4
20260507132403 75 9 6.1 8.7 0.00 0.00 0.00 85 1020.4
20260507132306 75 5 7.0 8.7 0.00 0.00 0.00 85 1020.3
20260507132203 75 15 4.3 8.7 0.00 0.00 0.00 85 1020.3
20260507132103 75 40 4.3 8.7 0.00 0.00 0.00 85 1020.3
20260507132003 75 344 3.5 8.7 0.00 0.00 0.00 85 1020.4
20260507131905 75 32 4.3 8.7 0.00 0.00 0.00 85 1020.3
20260507131802 75 24 5.2 8.7 0.00 0.00 0.00 85 1020.3
20260507131701 75 13 2.6 8.7 0.00 0.00 0.00 86 1020.3
20260507131604 75 34 4.3 8.7 0.00 0.00 0.00 86 1020.3
20260507131502 75 10 3.5 8.7 0.00 0.00 0.00 86 1020.2
20260507131302 75 25 3.5 8.7 0.00 0.00 0.00 85 1020.3
20260507131201 75 360 4.3 8.7 0.00 0.00 0.00 86 1020.3
20260507131102 75 355 7.0 8.7 0.00 0.00 0.00 86 1020.3
20260507131002 75 32 4.3 8.7 0.00 0.00 0.00 86 1020.3
20260507130901 75 355 7.8 7.8 0.00 0.00 0.00 86 1020.4
20260507130801 75 32 3.5 7.8 0.00 0.00 0.00 86 1020.4
20260507130701 75 355 7.0 7.8 0.00 0.00 0.00 86 1020.4
20260507130502 75 11 3.5 7.8 0.00 0.00 0.00 86 1020.4
20260507130403 75 355 3.5 7.8 0.00 0.00 0.00 86 1020.3
20260507130303 75 347 5.2 7.8 0.00 0.00 0.00 86 1020.4
20260507130003 75 360 4.3 7.8 0.00 0.00 0.00 86 1020.4
20260507125902 75 5 4.3 7.8 0.00 0.00 0.00 86 1020.4
20260507125804 75 329 0.9 8.7 0.00 0.00 0.00 86 1020.4
20260507125702 75 48 1.7 8.7 0.00 0.00 0.00 86 1020.4
20260507125601 75 11 6.1 8.7 0.00 0.00 0.00 86 1020.4
20260507125503 75 360 7.8 8.7 0.00 0.00 0.00 86 1020.5
20260507125401 75 9 1.7 8.7 0.00 0.00 0.00 86 1020.4
20260507125306 75 22 4.3 8.7 0.00 0.00 0.00 86 1020.4
20260507125202 75 355 3.5 8.7 0.00 0.00 0.00 86 1020.4
20260507125101 75 5 4.3 8.7 0.00 0.00 0.00 86 1020.4
20260507125003 75 10 6.1 8.7 0.00 0.00 0.00 86 1020.4
20260507124901 75 11 2.6 7.0 0.00 0.00 0.00 86 1020.4
20260507124801 75 35 3.5 7.0 0.00 0.00 0.00 86 1020.5
20260507124702 75 337 5.2 7.0 0.00 0.00 0.00 86 1020.4
20260507124601 75 5 5.2 7.8 0.00 0.00 0.00 86 1020.4
20260507124401 75 360 3.5 7.8 0.00 0.00 0.00 86 1020.5
20260507124301 75 22 2.6 7.8 0.00 0.00 0.00 86 1020.5
20260507124103 75 351 3.5 7.8 0.00 0.00 0.00 85 1020.5
20260507124003 75 5 3.5 10.4 0.00 0.00 0.00 85 1020.5
20260507123901 75 13 3.5 10.4 0.00 0.00 0.00 85 1020.5
20260507123802 75 35 2.6 10.4 0.00 0.00 0.00 85 1020.4
20260507123702 75 360 2.6 10.4 0.00 0.00 0.00 85 1020.5
20260507123602 75 51 2.6 10.4 0.00 0.00 0.00 85 1020.6
20260507123401 75 323 4.3 10.4 0.00 0.00 0.00 86 1020.5
20260507123300 75 355 4.3 10.4 0.00 0.00 0.00 86 1020.5
20260507123200 75 329 5.2 10.4 0.00 0.00 0.00 86 1020.5
20260507123101 75 309 10.4 10.4 0.00 0.00 0.00 86 1020.5
20260507123003 75 339 5.2 8.7 0.00 0.00 0.00 86 1020.6
20260507122901 75 355 2.6 8.7 0.00 0.00 0.00 86 1020.5
20260507122802 75 315 5.2 8.7 0.00 0.00 0.00 86 1020.5
20260507122707 75 337 5.2 8.7 0.00 0.00 0.00 86 1020.5
20260507122604 75 348 2.6 8.7 0.00 0.00 0.00 86 1020.5
20260507122402 75 339 3.5 8.7 0.00 0.00 0.00 86 1020.6
20260507122202 75 10 7.0 8.7 0.00 0.00 0.00 86 1020.6
20260507122102 75 347 5.2 9.6 0.00 0.00 0.00 86 1020.7
20260507122001 75 355 4.3 9.6 0.00 0.00 0.00 86 1020.7
20260507121700 75 22 7.8 9.6 0.00 0.00 0.00 86 1020.7
20260507121502 75 9 3.5 9.6 0.00 0.00 0.00 86 1020.7
20260507121402 75 5 1.7 9.6 0.00 0.00 0.00 86 1020.7
20260507121200 75 331 9.6 9.6 0.00 0.00 0.00 86 1020.7
20260507121101 75 355 2.6 8.7 0.00 0.00 0.00 86 1020.7
20260507121002 75 22 3.5 8.7 0.00 0.00 0.00 86 1020.7
20260507120902 75 26 3.5 8.7 0.00 0.00 0.00 86 1020.7
20260507120803 75 11 2.6 8.7 0.00 0.00 0.00 86 1020.6
20260507120701 75 331 4.3 8.7 0.00 0.00 0.00 86 1020.7
20260507120601 75 355 4.3 8.7 0.00 0.00 0.00 86 1020.8
20260507120404 75 5 4.3 8.7 0.00 0.00 0.00 86 1020.7
20260507120303 75 360 3.5 8.7 0.00 0.00 0.00 86 1020.7
20260507120003 75 331 5.2 8.7 0.00 0.00 0.00 86 1020.8
20260507115902 75 331 7.8 9.6 0.00 0.00 0.00 86 1020.8
20260507115802 75 355 5.2 9.6 0.00 0.00 0.00 86 1020.8
20260507115702 75 341 5.2 9.6 0.00 0.00 0.00 86 1020.8
20260507115601 75 25 4.3 9.6 0.00 0.00 0.00 86 1020.8
20260507115401 75 5 2.6 9.6 0.00 0.00 0.00 86 1020.8
20260507115302 75 355 2.6 9.6 0.00 0.00 0.00 86 1020.8
20260507115202 75 24 5.2 9.6 0.00 0.00 0.00 86 1020.8
20260507115102 75 341 7.0 9.6 0.00 0.00 0.00 86 1020.8
20260507115001 75 13 7.0 7.8 0.00 0.00 0.00 86 1020.8
20260507114903 75 344 4.3 7.8 0.00 0.00 0.00 86 1020.9
20260507114602 75 342 7.0 7.8 0.00 0.00 0.00 86 1020.8
20260507114503 75 5 4.3 8.7 0.00 0.00 0.00 86 1020.9
20260507114304 75 34 2.6 8.7 0.00 0.00 0.00 86 1020.8
20260507114203 75 326 7.0 9.6 0.00 0.00 0.00 86 1020.9
20260507114102 75 333 4.3 9.6 0.00 0.00 0.00 86 1021.0
20260507114002 75 360 3.5 9.6 0.00 0.00 0.00 86 1020.9
20260507113902 75 19 4.3 9.6 0.00 0.00 0.00 86 1020.9
20260507113803 75 346 4.3 9.6 0.00 0.00 0.00 86 1021.0
20260507113703 75 342 7.0 9.6 0.00 0.00 0.00 86 1021.0
20260507113602 75 350 7.0 9.6 0.00 0.00 0.00 86 1021.0
20260507113501 75 360 3.5 9.6 0.00 0.00 0.00 86 1021.0
20260507113403 75 10 7.0 9.6 0.00 0.00 0.00 86 1021.0
20260507113303 75 336 7.0 9.6 0.00 0.00 0.00 86 1021.0
20260507113102 75 331 5.2 8.7 0.00 0.00 0.00 86 1021.0
20260507112901 75 312 5.2 8.7 0.00 0.00 0.00 86 1021.1
20260507112801 75 342 7.0 8.7 0.00 0.00 0.00 86 1021.1
20260507112701 75 35 4.3 8.7 0.00 0.00 0.00 87 1021.2
20260507112602 75 330 5.2 8.7 0.00 0.00 0.00 87 1021.1
20260507112503 75 355 4.3 8.7 0.00 0.00 0.00 87 1021.1
20260507112402 75 11 7.0 8.7 0.00 0.00 0.00 87 1021.2
20260507112306 75 355 4.3 8.7 0.00 0.00 0.00 86 1021.1
20260507112203 75 338 3.5 8.7 0.00 0.00 0.00 87 1021.1
20260507112100 75 343 4.3 8.7 0.00 0.00 0.00 86 1021.0
20260507112001 75 334 5.2 8.7 0.00 0.00 0.00 86 1021.1
20260507111901 76 24 4.3 8.7 0.00 0.00 0.00 86 1021.1
20260507111801 76 360 5.2 10.4 0.00 0.00 0.00 86 1021.2
20260507111703 76 347 7.8 10.4 0.00 0.00 0.00 86 1021.1
20260507111601 76 344 5.2 10.4 0.00 0.00 0.00 86 1021.1
20260507111501 75 360 5.2 10.4 0.00 0.00 0.00 86 1021.1
20260507111402 76 5 3.5 10.4 0.00 0.00 0.00 86 1021.2
20260507111301 75 355 4.3 10.4 0.00 0.00 0.00 86 1021.1
20260507111203 75 329 5.2 10.4 0.00 0.00 0.00 86 1021.2
20260507111103 75 9 2.6 10.4 0.00 0.00 0.00 86 1021.2
20260507111001 75 346 7.8 10.4 0.00 0.00 0.00 86 1021.1
20260507110902 76 5 5.2 10.4 0.00 0.00 0.00 86 1021.1
20260507110801 76 340 4.3 10.4 0.00 0.00 0.00 86 1021.2
20260507110601 75 336 5.2 10.4 0.00 0.00 0.00 86 1021.2
20260507110502 75 332 7.8 10.4 0.00 0.00 0.00 86 1021.2
20260507110400 75 26 5.2 10.4 0.00 0.00 0.00 86 1021.3
20260507110301 75 349 4.3 10.4 0.00 0.00 0.00 86 1021.3
20260507110201 75 325 7.0 10.4 0.00 0.00 0.00 86 1021.3
20260507105902 76 331 7.0 10.4 0.00 0.00 0.00 86 1021.4
20260507105801 76 311 7.0 10.4 0.00 0.00 0.00 86 1021.3
20260507105702 76 5 5.2 10.4 0.00 0.00 0.00 86 1021.3
20260507105603 76 355 3.5 10.4 0.00 0.00 0.00 86 1021.3
20260507105501 76 336 7.8 10.4 0.00 0.00 0.00 86 1021.3
20260507105402 76 333 5.2 10.4 0.00 0.00 0.00 86 1021.4
20260507105103 76 355 7.0 10.4 0.00 0.00 0.00 86 1021.3
20260507105003 76 320 7.8 10.4 0.00 0.00 0.00 86 1021.3
20260507104902 76 342 7.8 10.4 0.00 0.00 0.00 86 1021.3
20260507104801 76 324 4.3 10.4 0.00 0.00 0.00 86 1021.4
20260507104702 76 328 7.0 10.4 0.00 0.00 0.00 86 1021.3
20260507104501 76 346 4.3 10.4 0.00 0.00 0.00 86 1021.3
20260507104403 76 338 10.4 10.4 0.00 0.00 0.00 86 1021.3
20260507104300 76 345 8.7 10.4 0.00 0.00 0.00 86 1021.3
20260507104203 76 355 7.0 11.3 0.00 0.00 0.00 86 1021.2
20260507104002 76 15 4.3 11.3 0.00 0.00 0.00 86 1021.4
20260507103901 76 328 7.8 11.3 0.00 0.00 0.00 86 1021.3
20260507103601 76 333 10.4 11.3 0.00 0.00 0.00 86 1021.4
20260507103502 76 326 3.5 11.3 0.00 0.00 0.00 86 1021.3
20260507103303 76 321 8.7 10.4 0.00 0.00 0.00 86 1021.5
20260507103202 76 331 5.2 10.4 0.00 0.00 0.00 86 1021.5
20260507103002 76 15 7.0 10.4 0.00 0.00 0.00 86 1021.5
20260507102901 76 320 4.3 10.4 0.00 0.00 0.00 86 1021.5
20260507102801 76 319 5.2 9.6 0.00 0.00 0.00 86 1021.5
20260507102701 76 22 7.0 9.6 0.00 0.00 0.00 86 1021.5
20260507102603 76 351 7.0 11.3 0.00 0.00 0.00 86 1021.4
20260507102503 75 325 4.3 11.3 0.00 0.00 0.00 86 1021.5
20260507102402 75 344 4.3 11.3 0.00 0.00 0.00 86 1021.6
20260507102306 75 315 5.2 11.3 0.00 0.00 0.00 86 1021.5
20260507102201 75 5 4.3 11.3 0.00 0.00 0.00 86 1021.5
20260507102102 75 360 7.0 11.3 0.00 0.00 0.00 86 1021.6
20260507102002 75 330 8.7 11.3 0.00 0.00 0.00 86 1021.5
20260507101805 76 345 9.6 11.3 0.00 0.00 0.00 86 1021.5
20260507101702 76 308 11.3 11.3 0.00 0.00 0.00 86 1021.5
20260507101604 76 319 7.0 10.4 0.00 0.00 0.00 86 1021.5
20260507101507 76 332 2.6 10.4 0.00 0.00 0.00 86 1021.5
20260507101302 76 342 7.0 10.4 0.00 0.00 0.00 86 1021.5
20260507101201 76 329 2.6 10.4 0.00 0.00 0.00 86 1021.5
20260507101102 75 288 7.0 10.4 0.00 0.00 0.00 86 1021.5
20260507101003 76 321 4.3 10.4 0.00 0.00 0.00 86 1021.5
20260507100904 76 355 9.6 10.4 0.00 0.00 0.00 86 1021.5
20260507100704 76 313 7.0 10.4 0.00 0.00 0.00 86 1021.5
20260507100602 76 5 7.0 10.4 0.00 0.00 0.00 86 1021.6
20260507100504 76 338 7.8 10.4 0.00 0.00 0.00 86 1021.6
20260507100402 76 344 9.6 10.4 0.00 0.00 0.00 86 1021.6
20260507100309 76 355 7.0 10.4 0.00 0.00 0.00 86 1021.6
20260507100203 76 325 4.3 10.4 0.00 0.00 0.00 86 1021.6
20260507100009 76 342 3.5 10.4 0.00 0.00 0.00 86 1021.6
20260507095903 76 331 7.8 10.4 0.00 0.00 0.00 86 1021.6
20260507095804 76 325 7.8 10.4 0.00 0.00 0.00 86 1021.7
20260507095703 76 360 7.8 12.2 0.00 0.00 0.00 86 1021.6
20260507095603 76 5 7.0 12.2 0.00 0.00 0.00 86 1021.6
20260507095503 76 321 5.2 12.2 0.00 0.00 0.00 86 1021.7
20260507095403 76 11 6.1 12.2 0.00 0.00 0.00 86 1021.6
20260507095306 76 360 8.7 12.2 0.00 0.00 0.00 86 1021.7
20260507095203 76 9 8.7 12.2 0.00 0.00 0.00 86 1021.6
20260507095103 76 338 2.6 12.2 0.00 0.00 0.00 86 1021.6
20260507095003 76 22 4.3 12.2 0.00 0.00 0.00 86 1021.6
20260507094903 76 22 7.8 11.3 0.00 0.00 0.00 86 1021.6
20260507094803 76 313 9.6 10.4 0.00 0.00 0.00 86 1021.6
20260507094706 76 331 7.8 10.4 0.00 0.00 0.00 86 1021.7
20260507094604 76 319 7.8 10.4 0.00 0.00 0.00 86 1021.6
20260507094503 76 312 5.2 10.4 0.00 0.00 0.00 86 1021.7
20260507094405 76 323 7.0 10.4 0.00 0.00 0.00 86 1021.7
20260507094302 76 329 7.8 10.4 0.00 0.00 0.00 86 1021.7
20260507094204 76 346 3.5 10.4 0.00 0.00 0.00 86 1021.7
20260507094104 76 342 9.6 10.4 0.00 0.00 0.00 86 1021.7
20260507093904 76 313 2.6 10.4 0.00 0.00 0.00 86 1021.7
20260507093803 76 344 5.2 10.4 0.00 0.00 0.00 86 1021.7
20260507093706 76 342 7.8 10.4 0.00 0.00 0.00 86 1021.7
20260507093504 76 5 8.7 11.3 0.00 0.00 0.00 86 1021.8
20260507093410 76 360 8.7 11.3 0.00 0.00 0.00 86 1021.8
20260507093302 76 338 5.2 11.3 0.00 0.00 0.00 86 1021.8
20260507093204 76 355 7.0 11.3 0.00 0.00 0.00 86 1021.8
20260507093004 76 336 3.5 11.3 0.00 0.00 0.00 86 1021.8
20260507092904 76 340 4.3 11.3 0.00 0.00 0.00 86 1021.9
20260507092803 76 355 7.8 11.3 0.00 0.00 0.00 86 1021.9
20260507092705 76 351 1.7 10.4 0.00 0.00 0.00 86 1021.8
20260507092603 76 328 4.3 10.4 0.00 0.00 0.00 86 1021.9
20260507092504 76 334 3.5 10.4 0.00 0.00 0.00 86 1021.9
20260507092404 76 360 5.2 10.4 0.00 0.00 0.00 86 1021.9
20260507092204 76 360 7.8 11.3 0.00 0.00 0.00 86 1021.9
20260507092104 76 327 5.2 11.3 0.00 0.00 0.00 86 1022.0
20260507092005 76 343 5.2 11.3 0.00 0.00 0.00 86 1021.9
20260507091805 76 319 10.4 11.3 0.00 0.00 0.00 86 1021.9
20260507091703 76 321 7.0 11.3 0.00 0.00 0.00 86 1021.9
20260507091603 76 5 2.6 11.3 0.00 0.00 0.00 86 1022.0
20260507091503 76 340 4.3 11.3 0.00 0.00 0.00 86 1021.9
20260507091404 76 340 8.7 11.3 0.00 0.00 0.00 86 1021.8
20260507091303 76 333 4.3 11.3 0.00 0.00 0.00 86 1021.9
20260507091204 76 344 4.3 11.3 0.00 0.00 0.00 86 1021.9
20260507091105 76 9 7.0 11.3 0.00 0.00 0.00 86 1021.9
20260507091003 76 319 5.2 11.3 0.00 0.00 0.00 86 1021.8
20260507090903 76 330 5.2 11.3 0.00 0.00 0.00 86 1021.9
20260507090803 76 355 5.2 11.3 0.00 0.00 0.00 86 1021.9
20260507090702 76 336 4.3 11.3 0.00 0.00 0.00 86 1021.8
20260507090603 76 360 3.5 11.3 0.00 0.00 0.00 86 1021.9
20260507090504 76 350 4.3 11.3 0.00 0.00 0.00 86 1022.0
20260507090404 76 355 7.8 11.3 0.00 0.00 0.00 86 1021.9
20260507090305 76 334 7.8 11.3 0.00 0.00 0.00 86 1021.9
20260507090205 76 330 10.4 10.4 0.00 0.00 0.00 86 1021.9
20260507090103 76 351 5.2 10.4 0.00 0.00 0.00 86 1021.9
20260507090003 76 11 8.7 10.4 0.00 0.00 0.00 86 1021.9
20260507085904 76 342 9.6 10.4 0.00 0.00 0.00 86 1021.9
20260507085803 76 348 4.3 10.4 0.00 0.00 0.00 86 1021.9
20260507085703 76 355 4.3 10.4 0.00 0.00 0.00 86 1022.0
20260507085503 76 340 5.2 10.4 0.00 0.00 0.00 86 1022.0
20260507085404 76 13 3.5 10.4 0.00 0.00 0.00 86 1021.9
20260507085307 76 313 5.2 11.3 0.00 0.00 0.00 86 1022.1
20260507085203 76 329 4.3 11.3 0.00 0.00 0.00 86 1021.9
20260507085003 76 350 3.5 11.3 0.00 0.00 0.00 86 1022.0
20260507084904 76 323 4.3 11.3 0.00 0.00 0.00 86 1022.0
20260507084802 76 332 7.8 11.3 0.00 0.00 0.00 86 1021.9
20260507084703 76 344 3.5 11.3 0.00 0.00 0.00 86 1022.0
20260507084603 76 355 4.3 11.3 0.00 0.00 0.00 86 1022.0
20260507084504 76 337 9.6 11.3 0.00 0.00 0.00 86 1022.0
20260507084404 76 330 5.2 11.3 0.00 0.00 0.00 86 1022.0
20260507084204 76 350 7.8 10.4 0.00 0.00 0.00 86 1022.0
20260507084103 76 343 3.5 12.2 0.00 0.00 0.00 86 1021.9
20260507084005 76 355 7.0 12.2 0.00 0.00 0.00 86 1021.9
20260507083803 76 350 9.6 12.2 0.00 0.00 0.00 86 1022.0
20260507083606 76 325 4.3 12.2 0.00 0.00 0.00 86 1022.0
20260507083503 76 321 5.2 12.2 0.00 0.00 0.00 86 1022.0
20260507083403 76 355 5.2 12.2 0.00 0.00 0.00 86 1021.9
20260507083304 76 338 7.0 12.2 0.00 0.00 0.00 86 1021.9
20260507083202 76 318 5.2 11.3 0.00 0.00 0.00 86 1022.0
20260507083103 76 343 7.0 11.3 0.00 0.00 0.00 86 1021.9
20260507083003 76 340 7.0 11.3 0.00 0.00 0.00 86 1022.0
20260507082904 76 5 7.8 11.3 0.00 0.00 0.00 86 1021.9
20260507082803 76 336 4.3 11.3 0.00 0.00 0.00 86 1022.0
20260507082704 76 19 3.5 11.3 0.00 0.00 0.00 86 1021.9
20260507082603 76 340 5.2 11.3 0.00 0.00 0.00 86 1021.9
20260507082504 76 355 2.6 11.3 0.00 0.00 0.00 86 1022.0
20260507082403 76 322 4.3 11.3 0.00 0.00 0.00 86 1022.0
20260507082306 76 293 7.0 11.3 0.00 0.00 0.00 86 1022.0
20260507082204 76 355 8.7 9.6 0.00 0.00 0.00 86 1021.9
20260507082104 76 345 5.2 9.6 0.00 0.00 0.00 86 1022.0
20260507082005 76 16 3.5 9.6 0.00 0.00 0.00 86 1022.0
20260507081903 76 360 9.6 9.6 0.00 0.00 0.00 86 1022.0
20260507081810 76 355 5.2 9.6 0.00 0.00 0.00 86 1021.9
20260507081703 76 339 8.7 10.4 0.00 0.00 0.00 86 1022.0
20260507081603 76 331 4.3 10.4 0.00 0.00 0.00 86 1022.0
20260507081504 76 360 5.2 10.4 0.00 0.00 0.00 86 1021.9
20260507081403 76 313 4.3 10.4 0.00 0.00 0.00 86 1022.0
20260507081303 76 345 2.6 10.4 0.00 0.00 0.00 86 1022.0
20260507081203 76 360 4.3 10.4 0.00 0.00 0.00 86 1021.9
20260507081104 76 340 5.2 10.4 0.00 0.00 0.00 86 1021.9
20260507081003 76 20 4.3 10.4 0.00 0.00 0.00 86 1021.9
20260507080804 76 315 8.7 10.4 0.00 0.00 0.00 86 1021.9
20260507080703 76 327 4.3 10.4 0.00 0.00 0.00 86 1021.9
20260507080604 76 355 7.0 10.4 0.00 0.00 0.00 86 1021.9
20260507080504 76 325 5.2 10.4 0.00 0.00 0.00 86 1022.0
20260507080203 76 338 5.2 10.4 0.00 0.00 0.00 86 1022.0
20260507080103 76 325 3.5 10.4 0.00 0.00 0.00 86 1022.0
20260507080005 76 307 3.5 10.4 0.00 0.00 0.00 86 1022.0
20260507075903 76 355 7.0 11.3 0.00 0.00 0.00 86 1021.9
20260507075704 76 336 8.7 11.3 0.00 0.00 0.00 86 1021.9
20260507075605 76 350 7.0 11.3 0.00 0.00 0.00 86 1022.0
20260507075503 76 342 5.2 11.3 0.00 0.00 0.00 86 1022.0
20260507075404 76 329 5.2 11.3 0.00 0.00 0.00 86 1022.0
20260507075307 76 315 5.2 11.3 0.00 0.00 0.00 86 1022.0
20260507075204 76 328 5.2 11.3 0.00 0.00 0.00 86 1022.0
20260507075103 76 311 7.8 11.3 0.00 0.00 0.00 86 1021.9
20260507075003 76 342 7.8 9.6 0.00 0.00 0.00 86 1022.0
20260507074903 76 355 3.5 9.6 0.00 0.00 0.00 86 1021.9
20260507074805 76 315 4.3 10.4 0.00 0.00 0.00 86 1021.9
20260507074707 76 310 4.3 10.4 0.00 0.00 0.00 86 1022.0
20260507074606 76 348 8.7 10.4 0.00 0.00 0.00 86 1022.0
20260507074503 76 320 3.5 10.4 0.00 0.00 0.00 86 1021.9
20260507074403 76 355 3.5 10.4 0.00 0.00 0.00 86 1021.9
20260507074304 76 335 4.3 10.4 0.00 0.00 0.00 86 1021.9
20260507074204 76 355 5.2 10.4 0.00 0.00 0.00 86 1021.9
20260507074104 76 304 7.0 10.4 0.00 0.00 0.00 86 1021.9
20260507074004 76 333 7.8 10.4 0.00 0.00 0.00 86 1021.9
20260507073903 76 340 7.0 10.4 0.00 0.00 0.00 86 1021.9
20260507073804 76 317 5.2 10.4 0.00 0.00 0.00 86 1021.9
20260507073703 76 327 7.0 10.4 0.00 0.00 0.00 86 1021.8
20260507073605 76 330 7.0 10.4 0.00 0.00 0.00 86 1021.8
20260507073503 76 313 4.3 10.4 0.00 0.00 0.00 86 1021.7
20260507073404 76 327 5.2 10.4 0.00 0.00 0.00 86 1021.8
20260507073305 76 309 7.8 10.4 0.00 0.00 0.00 86 1021.9
20260507073204 76 325 5.2 10.4 0.00 0.00 0.00 86 1021.8
20260507073105 76 336 8.7 10.4 0.00 0.00 0.00 86 1021.8
20260507073003 76 296 7.0 10.4 0.00 0.00 0.00 86 1021.8
20260507072906 76 344 7.8 10.4 0.00 0.00 0.00 86 1021.7
20260507072803 76 300 6.1 10.4 0.00 0.00 0.00 86 1021.7
20260507072703 76 317 5.2 10.4 0.00 0.00 0.00 86 1021.7
20260507072603 76 291 6.1 10.4 0.00 0.00 0.00 86 1021.7
20260507072504 76 320 5.2 10.4 0.00 0.00 0.00 86 1021.7
20260507072404 76 341 7.8 9.6 0.00 0.00 0.00 86 1021.7
20260507072306 76 355 7.8 9.6 0.00 0.00 0.00 86 1021.7
20260507072104 76 330 1.7 9.6 0.00 0.00 0.00 86 1021.7
20260507072004 76 323 7.0 11.3 0.00 0.00 0.00 85 1021.7
20260507071903 76 325 8.7 11.3 0.00 0.00 0.00 85 1021.7
20260507071802 76 292 7.0 11.3 0.00 0.00 0.00 85 1021.6
20260507071705 76 343 4.3 11.3 0.00 0.00 0.00 85 1021.7
20260507071605 76 346 7.0 11.3 0.00 0.00 0.00 85 1021.7
20260507071504 76 5 7.8 11.3 0.00 0.00 0.00 85 1021.6
20260507071405 76 360 4.3 11.3 0.00 0.00 0.00 85 1021.6
20260507071304 76 321 7.8 11.3 0.00 0.00 0.00 85 1021.6
20260507071203 76 360 4.3 11.3 0.00 0.00 0.00 85 1021.5
20260507071104 76 317 5.2 10.4 0.00 0.00 0.00 85 1021.6
20260507071004 76 291 7.8 10.4 0.00 0.00 0.00 85 1021.6
20260507070903 76 321 7.8 10.4 0.00 0.00 0.00 85 1021.5
20260507070804 76 320 5.2 10.4 0.00 0.00 0.00 85 1021.6
20260507070711 76 292 8.7 10.4 0.00 0.00 0.00 85 1021.6
20260507070604 76 335 7.0 10.4 0.00 0.00 0.00 85 1021.5
20260507070503 76 304 8.7 10.4 0.00 0.00 0.00 85 1021.5
20260507070403 76 305 6.1 10.4 0.00 0.00 0.00 85 1021.5
20260507070303 76 316 7.8 10.4 0.00 0.00 0.00 85 1021.5
20260507070203 76 319 9.6 11.3 0.00 0.00 0.00 85 1021.5
20260507070010 76 345 3.5 11.3 0.00 0.00 0.00 85 1021.5
20260507065904 76 321 5.2 11.3 0.00 0.00 0.00 85 1021.6
20260507065803 76 290 3.5 11.3 0.00 0.00 0.00 85 1021.5
20260507065704 76 326 5.2 11.3 0.00 0.00 0.00 85 1021.5
20260507065607 76 312 8.7 11.3 0.00 0.00 0.00 85 1021.5
20260507065505 76 333 9.6 11.3 0.00 0.00 0.00 85 1021.5
20260507065306 76 313 5.2 11.3 0.00 0.00 0.00 85 1021.5
20260507065203 76 323 3.5 10.4 0.00 0.00 0.00 85 1021.3
20260507064904 76 300 7.0 10.4 0.00 0.00 0.00 85 1021.3
20260507064803 76 298 7.0 10.4 0.00 0.00 0.00 85 1021.3
20260507064706 76 355 7.8 10.4 0.00 0.00 0.00 85 1021.3
20260507064605 77 339 7.0 10.4 0.00 0.00 0.00 85 1021.2
20260507064404 77 333 3.5 10.4 0.00 0.00 0.00 85 1021.3
20260507064303 77 291 6.1 10.4 0.00 0.00 0.00 85 1021.2
20260507064103 77 344 4.3 12.2 0.00 0.00 0.00 85 1021.3
20260507064005 77 290 4.3 12.2 0.00 0.00 0.00 85 1021.3
20260507063904 77 294 7.0 12.2 0.00 0.00 0.00 84 1021.2
20260507063803 77 333 4.3 12.2 0.00 0.00 0.00 84 1021.2
20260507063704 77 325 7.0 12.2 0.00 0.00 0.00 84 1021.2
20260507063606 77 333 10.4 12.2 0.00 0.00 0.00 84 1021.1
20260507063503 77 317 7.8 12.2 0.00 0.00 0.00 84 1021.0
20260507063404 77 315 7.0 12.2 0.00 0.00 0.00 84 1021.1
20260507063204 77 328 9.6 9.6 0.00 0.00 0.00 84 1021.1
20260507063003 77 317 5.2 10.4 0.00 0.00 0.00 84 1021.1
20260507062704 77 355 5.2 10.4 0.00 0.00 0.00 84 1021.1
20260507062611 77 349 3.5 10.4 0.00 0.00 0.00 84 1021.1
20260507062503 77 324 7.0 10.4 0.00 0.00 0.00 84 1021.1
20260507062404 77 325 3.5 10.4 0.00 0.00 0.00 84 1021.1
20260507062306 77 324 10.4 11.3 0.00 0.00 0.00 84 1021.1
20260507062204 77 349 8.7 11.3 0.00 0.00 0.00 84 1021.0
20260507062104 77 336 4.3 11.3 0.00 0.00 0.00 83 1021.0
20260507062004 77 351 4.3 11.3 0.00 0.00 0.00 83 1021.1
20260507061904 77 341 4.3 11.3 0.00 0.00 0.00 83 1021.0
20260507061805 77 338 4.3 11.3 0.00 0.00 0.00 83 1020.9
20260507061704 77 10 6.1 11.3 0.00 0.00 0.00 83 1020.9
20260507061607 77 355 5.2 11.3 0.00 0.00 0.00 83 1020.9
20260507061504 77 331 9.6 11.3 0.00 0.00 0.00 83 1020.9
20260507061407 77 360 4.3 10.4 0.00 0.00 0.00 83 1020.9
20260507061304 77 335 7.0 11.3 0.00 0.00 0.00 83 1020.9
20260507061203 77 331 8.7 11.3 0.00 0.00 0.00 83 1020.8
20260507061103 77 343 5.2 11.3 0.00 0.00 0.00 83 1020.8
20260507061004 77 340 7.8 11.3 0.00 0.00 0.00 83 1020.8
20260507060904 77 330 7.8 11.3 0.00 0.00 0.00 83 1020.8
20260507060804 77 5 7.0 11.3 0.00 0.00 0.00 83 1020.8
20260507060704 77 312 4.3 11.3 0.00 0.00 0.00 83 1020.8
20260507060603 77 330 7.0 11.3 0.00 0.00 0.00 83 1020.8
20260507060505 77 323 7.8 10.4 0.00 0.00 0.00 83 1020.8
20260507060304 77 313 3.5 10.4 0.00 0.00 0.00 83 1020.7
20260507060204 77 340 5.2 11.3 0.00 0.00 0.00 83 1020.7
20260507060107 77 325 7.0 12.2 0.00 0.00 0.00 83 1020.6
20260507055903 77 331 8.7 12.2 0.00 0.00 0.00 83 1020.7
20260507055805 77 298 4.3 12.2 0.00 0.00 0.00 83 1020.6
20260507055705 77 327 9.6 12.2 0.00 0.00 0.00 83 1020.6
20260507055605 77 319 5.2 12.2 0.00 0.00 0.00 83 1020.7
20260507055504 77 349 7.0 12.2 0.00 0.00 0.00 83 1020.6
20260507055403 77 340 8.7 12.2 0.00 0.00 0.00 83 1020.6
20260507055204 77 360 7.8 11.3 0.00 0.00 0.00 83 1020.6
20260507055104 77 348 7.0 11.3 0.00 0.00 0.00 83 1020.6
20260507054803 77 328 9.6 11.3 0.00 0.00 0.00 83 1020.6
20260507054703 77 355 11.3 11.3 0.00 0.00 0.00 83 1020.6
20260507054605 77 309 7.8 11.3 0.00 0.00 0.00 83 1020.4
20260507054509 77 5 5.2 10.4 0.00 0.00 0.00 83 1020.5
20260507054404 77 351 5.2 10.4 0.00 0.00 0.00 83 1020.5
20260507054203 77 331 3.5 10.4 0.00 0.00 0.00 83 1020.4
20260507053906 77 308 6.1 10.4 0.00 0.00 0.00 83 1020.4
20260507053804 77 360 5.2 10.4 0.00 0.00 0.00 83 1020.3
20260507053704 77 330 5.2 10.4 0.00 0.00 0.00 83 1020.4
20260507053605 77 281 7.8 10.4 0.00 0.00 0.00 83 1020.3
20260507053403 77 355 7.0 11.3 0.00 0.00 0.00 83 1020.2
20260507053205 77 321 5.2 11.3 0.00 0.00 0.00 83 1020.2
20260507053105 77 286 5.2 11.3 0.00 0.00 0.00 83 1020.2
20260507053004 77 335 8.7 11.3 0.00 0.00 0.00 83 1020.2
20260507052804 77 339 8.7 11.3 0.00 0.00 0.00 83 1020.2
20260507052703 77 337 9.6 13.0 0.00 0.00 0.00 83 1020.2
20260507052604 77 335 7.0 13.0 0.00 0.00 0.00 83 1020.2
20260507052407 77 316 7.0 13.0 0.00 0.00 0.00 83 1020.2
20260507052306 77 311 5.2 13.0 0.00 0.00 0.00 83 1020.1
20260507052204 77 309 8.7 13.0 0.00 0.00 0.00 83 1020.2
20260507052003 77 336 7.0 13.0 0.00 0.00 0.00 83 1020.2
20260507051904 77 24 4.3 11.3 0.00 0.00 0.00 83 1020.2
20260507051803 77 342 5.2 10.4 0.00 0.00 0.00 83 1020.2
20260507051705 77 315 7.8 10.4 0.00 0.00 0.00 83 1020.2
20260507051603 77 327 7.0 10.4 0.00 0.00 0.00 83 1020.2
20260507051504 77 331 4.3 11.3 0.00 0.00 0.00 83 1020.1
20260507051405 77 280 7.0 11.3 0.00 0.00 0.00 83 1020.1
20260507051304 77 319 3.5 11.3 0.00 0.00 0.00 83 1020.0
20260507051203 77 313 4.3 11.3 0.00 0.00 0.00 83 1020.1
20260507051102 77 281 6.1 11.3 0.00 0.00 0.00 83 1020.1
20260507051009 77 327 7.0 13.0 0.00 0.00 0.00 83 1020.1
20260507050802 77 335 3.5 13.0 0.00 0.00 0.00 83 1020.0
20260507050702 77 355 5.2 13.0 0.00 0.00 0.00 83 1020.1
20260507050502 77 323 4.3 13.0 0.00 0.00 0.00 83 1020.0
20260507050401 77 343 7.8 13.0 0.00 0.00 0.00 83 1020.0
20260507050202 77 325 4.3 13.0 0.00 0.00 0.00 83 1019.9
20260507045903 77 297 10.4 12.2 0.00 0.00 0.00 83 1019.9
20260507045702 77 334 7.8 13.0 0.00 0.00 0.00 83 1019.9
20260507045602 77 347 7.0 13.0 0.00 0.00 0.00 83 1019.9
20260507045503 77 320 9.6 13.0 0.00 0.00 0.00 83 1019.9
20260507045402 77 360 3.5 14.8 0.00 0.00 0.00 83 1019.7
20260507045203 77 310 4.3 14.8 0.00 0.00 0.00 83 1019.8
20260507045102 77 5 7.0 14.8 0.00 0.00 0.00 83 1019.8
20260507045002 77 309 9.6 14.8 0.00 0.00 0.00 83 1019.8
20260507044902 77 296 7.8 14.8 0.00 0.00 0.00 83 1019.8
20260507044705 77 302 8.7 14.8 0.00 0.00 0.00 83 1019.8
20260507044604 77 311 11.3 14.8 0.00 0.00 0.00 83 1019.7
20260507044403 77 294 7.8 12.2 0.00 0.00 0.00 83 1019.8
20260507044102 77 306 6.1 12.2 0.00 0.00 0.00 83 1019.8
20260507044002 77 270 7.8 12.2 0.00 0.00 0.00 83 1019.7
20260507043902 78 312 9.6 12.2 0.00 0.00 0.00 83 1019.8
20260507043803 77 334 7.0 12.2 0.00 0.00 0.00 83 1019.8
20260507043702 77 335 4.3 12.2 0.00 0.00 0.00 83 1019.8
20260507043602 77 338 7.0 12.2 0.00 0.00 0.00 83 1019.7
20260507043503 77 313 9.6 12.2 0.00 0.00 0.00 83 1019.8
20260507043403 77 348 4.3 12.2 0.00 0.00 0.00 83 1019.7
20260507043302 77 351 7.8 12.2 0.00 0.00 0.00 83 1019.8
20260507043202 77 326 10.4 12.2 0.00 0.00 0.00 83 1019.7
20260507043102 77 319 7.0 12.2 0.00 0.00 0.00 83 1019.8
20260507043002 77 331 9.6 12.2 0.00 0.00 0.00 83 1019.7
20260507042903 77 294 8.7 12.2 0.00 0.00 0.00 83 1019.7
20260507042804 77 344 9.6 12.2 0.00 0.00 0.00 83 1019.6
20260507042703 77 315 7.8 12.2 0.00 0.00 0.00 83 1019.6
20260507042602 77 325 7.0 12.2 0.00 0.00 0.00 83 1019.7
20260507042503 77 298 10.4 12.2 0.00 0.00 0.00 83 1019.5
20260507042309 77 360 5.2 13.0 0.00 0.00 0.00 83 1019.6
20260507042203 78 299 7.8 13.0 0.00 0.00 0.00 83 1019.6
20260507042109 78 329 4.3 13.0 0.00 0.00 0.00 82 1019.6
20260507042003 78 321 7.8 13.0 0.00 0.00 0.00 83 1019.5
20260507041905 78 355 4.3 13.0 0.00 0.00 0.00 83 1019.6
20260507041802 78 329 7.0 13.0 0.00 0.00 0.00 82 1019.5
20260507041703 78 315 10.4 13.0 0.00 0.00 0.00 82 1019.5
20260507041602 78 313 7.8 13.0 0.00 0.00 0.00 83 1019.5
20260507041502 78 307 9.6 12.2 0.00 0.00 0.00 83 1019.5
20260507041410 78 311 7.8 12.2 0.00 0.00 0.00 83 1019.4
20260507041303 78 310 9.6 12.2 0.00 0.00 0.00 82 1019.4
20260507041202 78 310 7.0 12.2 0.00 0.00 0.00 83 1019.5
20260507041105 78 339 5.2 12.2 0.00 0.00 0.00 83 1019.3
20260507040904 78 326 9.6 13.0 0.00 0.00 0.00 82 1019.2
20260507040704 78 284 7.0 13.0 0.00 0.00 0.00 82 1019.2
20260507040603 78 293 9.6 13.0 0.00 0.00 0.00 82 1019.2
20260507040304 78 355 8.7 13.0 0.00 0.00 0.00 82 1019.2
20260507040104 78 321 10.4 12.2 0.00 0.00 0.00 82 1019.2
20260507040003 78 326 5.2 12.2 0.00 0.00 0.00 82 1019.2
20260507035902 78 323 5.2 12.2 0.00 0.00 0.00 82 1019.1
20260507035803 78 316 8.7 12.2 0.00 0.00 0.00 82 1019.1
20260507035706 78 351 5.2 12.2 0.00 0.00 0.00 82 1019.2
20260507035602 78 360 5.2 13.9 0.00 0.00 0.00 82 1019.2
20260507035403 78 326 12.2 13.9 0.00 0.00 0.00 82 1019.1
20260507035301 78 337 5.2 13.9 0.00 0.00 0.00 82 1019.2
20260507035203 78 9 7.8 13.9 0.00 0.00 0.00 82 1019.2
20260507035102 78 313 3.5 14.8 0.00 0.00 0.00 82 1019.2
20260507035003 78 331 7.0 14.8 0.00 0.00 0.00 82 1019.2
20260507034903 78 306 11.3 14.8 0.00 0.00 0.00 82 1019.1
20260507034805 78 314 8.7 14.8 0.00 0.00 0.00 82 1019.2
20260507034602 79 327 8.7 14.8 0.00 0.00 0.00 81 1019.2
20260507034502 79 299 11.3 14.8 0.00 0.00 0.00 81 1019.2
20260507034403 79 325 5.2 14.8 0.00 0.00 0.00 81 1019.1
20260507034303 79 317 7.0 14.8 0.00 0.00 0.00 81 1019.1
20260507034209 79 355 5.2 13.0 0.00 0.00 0.00 81 1019.0
20260507034103 79 292 7.0 13.0 0.00 0.00 0.00 81 1019.0
20260507033905 79 304 8.7 13.0 0.00 0.00 0.00 81 1019.1
20260507033804 79 292 9.6 13.0 0.00 0.00 0.00 81 1019.1
20260507033603 79 310 7.8 13.0 0.00 0.00 0.00 81 1019.0
20260507033503 79 28 7.8 13.0 0.00 0.00 0.00 81 1019.0
20260507033402 79 304 7.0 13.0 0.00 0.00 0.00 81 1019.0
20260507033203 79 331 5.2 13.0 0.00 0.00 0.00 80 1019.0
20260507033002 79 331 11.3 13.9 0.00 0.00 0.00 80 1019.0
20260507032702 79 329 8.7 13.9 0.00 0.00 0.00 80 1019.0
20260507032602 79 301 7.8 13.9 0.00 0.00 0.00 80 1018.9
20260507032305 80 331 9.6 13.9 0.00 0.00 0.00 80 1018.9
20260507032203 80 314 7.0 13.9 0.00 0.00 0.00 80 1018.9
20260507032104 80 315 9.6 13.9 0.00 0.00 0.00 80 1018.9
20260507032008 80 281 10.4 13.9 0.00 0.00 0.00 80 1018.9
20260507031902 80 323 9.6 13.9 0.00 0.00 0.00 80 1018.9
20260507031802 80 305 12.2 13.9 0.00 0.00 0.00 80 1018.9
20260507031703 80 308 11.3 13.9 0.00 0.00 0.00 80 1019.0
20260507031603 80 327 7.0 13.9 0.00 0.00 0.00 80 1019.0
20260507031502 80 328 9.6 13.9 0.00 0.00 0.00 80 1018.9
20260507031402 80 300 7.0 13.9 0.00 0.00 0.00 80 1018.9
20260507031304 80 346 8.7 13.9 0.00 0.00 0.00 80 1018.9
20260507031105 80 340 8.7 13.9 0.00 0.00 0.00 79 1018.9
20260507031003 80 319 11.3 13.9 0.00 0.00 0.00 80 1018.9
20260507030905 80 309 7.8 12.2 0.00 0.00 0.00 80 1018.9
20260507030702 80 295 3.5 13.0 0.00 0.00 0.00 79 1018.9
20260507030604 80 302 11.3 13.0 0.00 0.00 0.00 79 1018.9
20260507030304 80 280 6.1 13.0 0.00 0.00 0.00 79 1018.9
20260507030204 81 314 7.8 13.0 0.00 0.00 0.00 79 1018.9
20260507030106 81 316 10.4 13.0 0.00 0.00 0.00 79 1018.8
20260507030004 81 279 13.0 13.9 0.00 0.00 0.00 79 1018.8
20260507025902 81 336 8.7 13.9 0.00 0.00 0.00 79 1018.9
20260507025802 81 321 8.7 13.9 0.00 0.00 0.00 79 1018.8
20260507025402 81 328 11.3 13.9 0.00 0.00 0.00 79 1018.6
20260507025306 81 317 8.7 13.9 0.00 0.00 0.00 78 1018.8
20260507025103 81 297 7.8 13.0 0.00 0.00 0.00 79 1018.7
20260507024701 81 340 7.0 14.8 0.00 0.00 0.00 78 1018.8
20260507024609 81 296 7.8 14.8 0.00 0.00 0.00 78 1018.8
20260507024502 81 308 6.1 14.8 0.00 0.00 0.00 78 1018.7
20260507024402 81 312 7.0 14.8 0.00 0.00 0.00 78 1018.8
20260507024203 81 297 11.3 14.8 0.00 0.00 0.00 78 1018.8
20260507024103 81 305 9.6 14.8 0.00 0.00 0.00 77 1018.7
20260507024003 81 296 8.7 14.8 0.00 0.00 0.00 78 1018.8
20260507023802 81 322 14.8 14.8 0.00 0.00 0.00 77 1018.7
20260507023603 81 314 7.8 13.9 0.00 0.00 0.00 77 1018.8
20260507023502 82 286 6.1 13.9 0.00 0.00 0.00 77 1018.7
20260507023402 82 312 7.8 13.9 0.00 0.00 0.00 77 1018.6
20260507023303 82 311 8.7 13.9 0.00 0.00 0.00 77 1018.6
20260507023205 82 292 7.0 13.9 0.00 0.00 0.00 77 1018.8
20260507023003 82 327 13.0 13.9 0.00 0.00 0.00 76 1018.6
20260507022904 83 301 7.0 11.3 0.00 0.00 0.00 76 1018.6
20260507022702 83 296 6.1 11.3 0.00 0.00 0.00 75 1018.7
20260507022501 83 24 4.3 13.0 0.00 0.00 0.00 76 1018.7
20260507022306 82 348 7.8 13.0 0.00 0.00 0.00 76 1018.5
20260507022204 82 317 7.8 13.0 0.00 0.00 0.00 76 1018.7
20260507022103 82 342 5.2 13.0 0.00 0.00 0.00 76 1018.6
20260507022004 82 304 8.7 13.0 0.00 0.00 0.00 77 1018.6
20260507021802 82 326 7.8 13.0 0.00 0.00 0.00 76 1018.6
20260507021702 82 315 7.8 13.0 0.00 0.00 0.00 76 1018.7
20260507021603 82 330 9.6 12.2 0.00 0.00 0.00 76 1018.7
20260507021503 83 315 9.6 12.2 0.00 0.00 0.00 77 1018.6
20260507021404 82 316 8.7 12.2 0.00 0.00 0.00 76 1018.7
20260507021103 82 345 7.0 12.2 0.00 0.00 0.00 76 1018.7
20260507021002 82 292 6.1 12.2 0.00 0.00 0.00 76 1018.7
20260507020902 83 339 4.3 13.0 0.00 0.00 0.00 77 1018.7
20260507020802 82 308 7.0 13.0 0.00 0.00 0.00 77 1018.8
20260507020702 82 315 5.2 13.0 0.00 0.00 0.00 77 1018.8
20260507020603 82 302 7.8 13.0 0.00 0.00 0.00 77 1018.8
20260507020402 82 305 7.0 13.0 0.00 0.00 0.00 78 1018.8
20260507020302 82 323 8.7 13.0 0.00 0.00 0.00 77 1018.9
20260507020203 82 333 10.4 13.9 0.00 0.00 0.00 77 1018.8
20260507020004 82 304 7.0 14.8 0.00 0.00 0.00 77 1018.9
20260507015902 82 316 11.3 14.8 0.00 0.00 0.00 77 1018.9
20260507015802 82 300 7.8 14.8 0.00 0.00 0.00 77 1018.9
20260507015703 82 323 12.2 14.8 0.00 0.00 0.00 77 1018.9
20260507015602 82 306 10.4 14.8 0.00 0.00 0.00 77 1018.9
20260507015502 82 319 9.6 14.8 0.00 0.00 0.00 76 1018.8
20260507015402 82 279 10.4 14.8 0.00 0.00 0.00 76 1018.8
20260507015305 82 322 7.0 14.8 0.00 0.00 0.00 77 1018.8
20260507015004 83 301 11.3 13.9 0.00 0.00 0.00 76 1018.8
20260507014903 83 288 9.6 13.9 0.00 0.00 0.00 76 1018.9
20260507014804 83 323 5.2 13.9 0.00 0.00 0.00 76 1018.8
20260507014702 83 336 7.0 13.9 0.00 0.00 0.00 76 1018.9
20260507014602 83 327 11.3 13.9 0.00 0.00 0.00 76 1018.9
20260507014502 83 325 7.8 13.9 0.00 0.00 0.00 75 1018.9
20260507014402 83 283 10.4 14.8 0.00 0.00 0.00 75 1018.8
20260507014304 83 325 5.2 14.8 0.00 0.00 0.00 75 1018.8
20260507014102 83 290 4.3 14.8 0.00 0.00 0.00 76 1018.9
20260507014003 83 355 7.0 14.8 0.00 0.00 0.00 76 1018.8
20260507013904 83 331 7.8 14.8 0.00 0.00 0.00 76 1018.9
20260507013803 83 319 5.2 14.8 0.00 0.00 0.00 76 1018.9
20260507013704 83 338 7.8 14.8 0.00 0.00 0.00 77 1018.8
20260507013602 83 290 6.1 14.8 0.00 0.00 0.00 77 1018.9
20260507013502 83 331 9.6 14.8 0.00 0.00 0.00 77 1018.8
20260507013404 83 304 7.8 13.0 0.00 0.00 0.00 77 1018.8
20260507013303 83 338 8.7 13.9 0.00 0.00 0.00 77 1018.8
20260507013202 82 320 7.8 13.9 0.00 0.00 0.00 78 1018.8
20260507013003 82 304 8.7 13.9 0.00 0.00 0.00 77 1018.8
20260507012902 82 296 8.7 15.6 0.00 0.00 0.00 77 1018.8
20260507012802 82 321 7.0 15.6 0.00 0.00 0.00 77 1018.8
20260507012704 82 265 9.6 15.6 0.00 0.00 0.00 77 1018.8
20260507012504 82 278 7.8 15.6 0.00 0.00 0.00 77 1018.7
20260507012401 82 275 9.6 15.6 0.00 0.00 0.00 77 1018.7
20260507012102 82 348 7.8 15.6 0.00 0.00 0.00 77 1018.8
20260507011904 82 305 11.3 15.6 0.00 0.00 0.00 76 1018.8
20260507011802 83 306 13.9 14.8 0.00 0.00 0.00 76 1018.8
20260507011602 83 300 12.2 13.9 0.00 0.00 0.00 75 1018.9
20260507011302 83 305 6.1 13.9 0.00 0.00 0.00 75 1018.8
20260507011109 83 313 8.7 12.2 0.00 0.00 0.00 76 1018.8
20260507011005 83 317 7.0 12.2 0.00 0.00 0.00 75 1018.8
20260507010903 84 348 5.2 13.0 0.00 0.00 0.00 75 1018.8
20260507010703 84 273 6.1 13.0 0.00 0.00 0.00 76 1018.9
20260507010604 83 319 12.2 13.0 0.00 0.00 0.00 76 1018.9
20260507010503 83 302 7.0 13.0 0.00 0.00 0.00 76 1018.9
20260507010402 83 332 8.7 13.0 0.00 0.00 0.00 75 1018.9
20260507010302 83 326 9.6 13.0 0.00 0.00 0.00 74 1018.9
20260507010202 83 286 7.0 13.0 0.00 0.00 0.00 75 1018.8
20260507010105 83 302 4.3 13.0 0.00 0.00 0.00 73 1018.8
20260507010002 83 293 10.4 13.0 0.00 0.00 0.00 74 1018.8
20260507005801 83 12 9.6 13.0 0.00 0.00 0.00 72 1018.9
20260507005702 83 336 8.7 13.0 0.00 0.00 0.00 72 1018.9
20260507005602 83 327 7.8 13.0 0.00 0.00 0.00 72 1019.0
20260507005502 83 336 11.3 13.0 0.00 0.00 0.00 73 1018.9
20260507005402 83 320 8.7 13.0 0.00 0.00 0.00 73 1018.9
20260507005305 83 311 7.8 13.0 0.00 0.00 0.00 72 1018.9
20260507005204 83 311 8.7 13.0 0.00 0.00 0.00 73 1018.9
20260507005104 83 315 8.7 12.2 0.00 0.00 0.00 73 1018.9
20260507005002 83 338 7.0 12.2 0.00 0.00 0.00 72 1018.8
20260507004902 83 275 9.6 12.2 0.00 0.00 0.00 72 1018.9
20260507004804 83 323 9.6 12.2 0.00 0.00 0.00 72 1019.0
20260507004702 83 323 8.7 13.0 0.00 0.00 0.00 73 1019.0
20260507004603 83 333 5.2 13.0 0.00 0.00 0.00 72 1018.9
20260507004502 83 326 7.8 13.0 0.00 0.00 0.00 72 1019.0
20260507004402 83 306 7.8 13.0 0.00 0.00 0.00 72 1018.9
20260507004302 83 340 9.6 13.0 0.00 0.00 0.00 72 1019.0
20260507004202 83 355 7.8 13.0 0.00 0.00 0.00 72 1019.0
20260507004002 83 327 7.8 13.9 0.00 0.00 0.00 73 1019.0
20260507003904 83 306 8.7 13.9 0.00 0.00 0.00 74 1019.0
20260507003702 83 311 8.7 13.9 0.00 0.00 0.00 74 1019.0
20260507003603 83 320 9.6 13.9 0.00 0.00 0.00 74 1019.0
20260507003502 83 294 9.6 13.9 0.00 0.00 0.00 73 1019.0
20260507003402 83 293 7.8 13.9 0.00 0.00 0.00 74 1019.0
20260507003205 83 327 7.8 13.0 0.00 0.00 0.00 74 1019.0
20260507003102 83 300 8.7 13.0 0.00 0.00 0.00 73 1019.0
20260507002903 83 333 8.7 13.0 0.00 0.00 0.00 74 1019.0
20260507002803 83 294 9.6 12.2 0.00 0.00 0.00 73 1019.0
20260507002702 83 339 4.3 12.2 0.00 0.00 0.00 73 1019.0
20260507002604 84 317 7.8 13.0 0.00 0.00 0.00 72 1019.0
20260507002503 84 306 10.4 13.0 0.00 0.00 0.00 73 1019.0
20260507002403 84 311 7.8 13.0 0.00 0.00 0.00 74 1019.0
20260507002306 84 271 6.1 13.0 0.00 0.00 0.00 73 1019.0
20260507002203 83 328 7.8 13.0 0.00 0.00 0.00 73 1019.0
20260507002102 83 339 7.8 13.0 0.00 0.00 0.00 73 1019.1
20260507002003 84 333 10.4 13.0 0.00 0.00 0.00 73 1019.0
20260507001901 83 311 5.2 13.0 0.00 0.00 0.00 73 1019.0
20260507001802 84 306 6.1 13.0 0.00 0.00 0.00 74 1019.1
20260507001702 83 340 8.7 12.2 0.00 0.00 0.00 74 1019.1
20260507001602 83 294 8.7 12.2 0.00 0.00 0.00 74 1019.1
20260507001502 83 325 7.0 12.2 0.00 0.00 0.00 75 1019.1
20260507001404 83 311 4.3 12.2 0.00 0.00 0.00 74 1019.1
20260507001302 83 315 7.8 12.2 0.00 0.00 0.00 74 1019.1
20260507001202 83 290 7.0 12.2 0.00 0.00 0.00 75 1019.1
20260507001103 82 322 8.7 12.2 0.00 0.00 0.00 74 1019.1
20260507001001 83 306 8.7 12.2 0.00 0.00 0.00 75 1019.2
20260507000902 82 296 9.6 11.3 0.00 0.00 0.00 75 1019.2
20260507000703 82 318 7.8 11.3 0.00 0.00 0.00 75 1019.2
20260507000604 82 322 7.8 13.0 0.00 0.00 0.00 75 1019.4
20260507000501 83 311 9.6 13.0 0.00 0.00 0.00 74 1019.4
20260507000401 83 276 8.7 13.0 0.00 0.00 0.00 74 1019.4
20260507000303 83 325 10.4 13.0 0.00 0.00 0.00 74 1019.4
20260507000204 83 298 4.3 13.0 0.00 0.00 0.00 73 1019.4
20260507000005 84 355 8.7 13.0 0.00 0.00 0.00 72 1019.3
20260506235905 84 317 9.6 13.0 0.00 0.00 0.00 72 1019.4
20260506235704 84 311 5.2 11.3 0.00 0.00 0.00 73 1019.4
20260506235602 84 5 7.0 11.3 0.00 0.00 0.00 73 1019.4
20260506235503 84 319 8.7 12.2 0.00 0.00 0.00 74 1019.3
20260506235402 83 331 5.2 12.2 0.00 0.00 0.00 74 1019.4
20260506235102 83 311 5.2 12.2 0.00 0.00 0.00 75 1019.4
20260506235003 82 329 9.6 12.2 0.00 0.00 0.00 75 1019.4
20260506234904 82 315 7.0 12.2 0.00 0.00 0.00 76 1019.4
20260506234804 82 286 7.8 12.2 0.00 0.00 0.00 75 1019.4
20260506234703 82 298 9.6 12.2 0.00 0.00 0.00 74 1019.5
20260506234602 82 309 9.6 12.2 0.00 0.00 0.00 73 1019.5
20260506234402 82 331 8.7 12.2 0.00 0.00 0.00 74 1019.4
20260506234304 83 299 7.8 12.2 0.00 0.00 0.00 73 1019.4
20260506234201 83 307 9.6 12.2 0.00 0.00 0.00 74 1019.5
20260506234102 83 327 7.0 13.0 0.00 0.00 0.00 73 1019.4
20260506233903 83 5 5.2 13.0 0.00 0.00 0.00 73 1019.5
20260506233802 83 300 11.3 13.0 0.00 0.00 0.00 72 1019.5
20260506233703 83 299 8.7 13.0 0.00 0.00 0.00 72 1019.5
20260506233602 83 338 8.7 13.0 0.00 0.00 0.00 72 1019.5
20260506233402 84 306 8.7 13.0 0.00 0.00 0.00 72 1019.6
20260506233202 84 351 11.3 12.2 0.00 0.00 0.00 73 1019.5
20260506233005 83 311 8.7 12.2 0.00 0.00 0.00 73 1019.5
20260506232904 83 309 7.8 12.2 0.00 0.00 0.00 72 1019.6
20260506232802 83 305 11.3 12.2 0.00 0.00 0.00 72 1019.7
20260506232702 84 298 10.4 12.2 0.00 0.00 0.00 72 1019.6
20260506232503 84 280 7.8 12.2 0.00 0.00 0.00 72 1019.7
20260506232402 84 341 7.0 12.2 0.00 0.00 0.00 71 1019.7
20260506232202 84 299 9.6 12.2 0.00 0.00 0.00 71 1019.6
20260506232103 84 328 4.3 12.2 0.00 0.00 0.00 71 1019.6
20260506232003 84 318 9.6 12.2 0.00 0.00 0.00 71 1019.6
20260506231802 84 346 7.8 12.2 0.00 0.00 0.00 73 1019.6
20260506231708 84 286 8.7 11.3 0.00 0.00 0.00 72 1019.7
20260506231602 84 341 7.0 13.0 0.00 0.00 0.00 72 1019.6
20260506231502 84 331 7.8 13.0 0.00 0.00 0.00 72 1019.7
20260506231401 84 304 9.6 13.0 0.00 0.00 0.00 71 1019.7
20260506231302 84 311 7.8 13.0 0.00 0.00 0.00 72 1019.6
20260506231203 84 271 6.1 13.0 0.00 0.00 0.00 72 1019.6
20260506231108 83 338 7.8 13.0 0.00 0.00 0.00 73 1019.6
20260506231001 83 355 8.7 13.0 0.00 0.00 0.00 73 1019.6
20260506230901 83 309 11.3 13.0 0.00 0.00 0.00 74 1019.6
20260506230702 83 299 8.7 12.2 0.00 0.00 0.00 72 1019.6
20260506230501 84 338 8.7 11.3 0.00 0.00 0.00 71 1019.7
20260506230403 84 311 10.4 11.3 0.00 0.00 0.00 72 1019.6
20260506230302 84 326 8.7 11.3 0.00 0.00 0.00 73 1019.6
20260506230203 84 5 8.7 12.2 0.00 0.00 0.00 73 1019.6
20260506230002 83 355 4.3 12.2 0.00 0.00 0.00 74 1019.7
20260506225902 83 296 9.6 12.2 0.00 0.00 0.00 74 1019.7
20260506225703 83 287 6.1 12.2 0.00 0.00 0.00 74 1019.7
20260506225403 83 315 7.8 12.2 0.00 0.00 0.00 74 1019.7
20260506225305 83 299 10.4 11.3 0.00 0.00 0.00 74 1019.7
20260506225203 83 291 4.3 11.3 0.00 0.00 0.00 74 1019.7
20260506225102 83 298 11.3 13.0 0.00 0.00 0.00 74 1019.8
20260506225002 83 344 7.8 13.9 0.00 0.00 0.00 73 1019.7
20260506224902 83 336 9.6 13.9 0.00 0.00 0.00 74 1019.7
20260506224803 83 323 8.7 13.9 0.00 0.00 0.00 73 1019.8
20260506224705 84 299 8.7 13.9 0.00 0.00 0.00 73 1019.7
20260506224602 83 306 7.8 13.9 0.00 0.00 0.00 73 1019.8
20260506224502 83 302 9.6 13.9 0.00 0.00 0.00 72 1019.7
20260506224402 83 317 8.7 13.9 0.00 0.00 0.00 73 1019.8
20260506224302 83 309 4.3 13.9 0.00 0.00 0.00 72 1019.9
20260506224203 83 314 11.3 13.9 0.00 0.00 0.00 74 1019.9
20260506224101 83 323 4.3 12.2 0.00 0.00 0.00 73 1019.9
20260506224001 83 321 8.7 12.2 0.00 0.00 0.00 72 1019.8
20260506223901 83 284 7.0 12.2 0.00 0.00 0.00 72 1019.9
20260506223804 83 320 11.3 12.2 0.00 0.00 0.00 72 1019.9
20260506223703 84 298 8.7 12.2 0.00 0.00 0.00 71 1019.9
20260506223508 84 300 7.0 11.3 0.00 0.00 0.00 73 1019.9
20260506223403 83 350 9.6 11.3 0.00 0.00 0.00 73 1019.9
20260506223303 83 355 4.3 11.3 0.00 0.00 0.00 73 1019.8
20260506223201 83 304 7.8 11.3 0.00 0.00 0.00 72 1019.9
20260506223102 84 321 7.8 10.4 0.00 0.00 0.00 72 1019.9
20260506223003 84 304 8.7 10.4 0.00 0.00 0.00 73 1019.9
20260506222903 83 300 4.3 10.4 0.00 0.00 0.00 73 1019.9
20260506222802 83 314 7.8 11.3 0.00 0.00 0.00 73 1019.9
20260506222702 83 328 5.2 11.3 0.00 0.00 0.00 73 1020.0
20260506222503 83 335 7.0 11.3 0.00 0.00 0.00 73 1019.9
20260506222402 83 306 9.6 11.3 0.00 0.00 0.00 73 1019.9
20260506222202 83 302 7.0 11.3 0.00 0.00 0.00 74 1019.9
20260506222102 83 315 7.8 11.3 0.00 0.00 0.00 74 1019.9
20260506222003 83 347 11.3 11.3 0.00 0.00 0.00 73 1019.9
20260506221804 84 292 9.6 12.2 0.00 0.00 0.00 73 1019.9
20260506221703 84 296 6.1 12.2 0.00 0.00 0.00 73 1019.9
20260506221604 83 302 4.3 13.0 0.00 0.00 0.00 75 1019.9
20260506221501 83 320 7.0 13.0 0.00 0.00 0.00 74 1020.0
20260506221402 83 326 4.3 13.0 0.00 0.00 0.00 74 1020.0
20260506221302 83 320 10.4 13.0 0.00 0.00 0.00 74 1020.0
20260506221202 83 314 7.0 13.0 0.00 0.00 0.00 74 1020.0
20260506221103 83 301 7.8 13.0 0.00 0.00 0.00 74 1020.1
20260506221003 83 329 8.7 13.0 0.00 0.00 0.00 73 1020.0
20260506220904 83 331 9.6 13.0 0.00 0.00 0.00 73 1020.0
20260506220803 83 292 8.7 13.0 0.00 0.00 0.00 73 1020.1
20260506220702 83 321 5.2 13.0 0.00 0.00 0.00 74 1020.0
20260506220602 82 298 7.8 13.0 0.00 0.00 0.00 74 1020.1
20260506220502 82 311 7.0 13.0 0.00 0.00 0.00 74 1020.1
20260506220301 82 317 7.8 13.0 0.00 0.00 0.00 75 1020.2
20260506220004 83 325 11.3 13.0 0.00 0.00 0.00 74 1020.1
20260506215902 83 305 13.0 13.0 0.00 0.00 0.00 74 1020.2
20260506215702 83 338 8.7 13.0 0.00 0.00 0.00 73 1020.2
20260506215607 83 320 7.0 13.0 0.00 0.00 0.00 72 1020.2
20260506215403 84 297 9.6 11.3 0.00 0.00 0.00 74 1020.2
20260506215305 84 287 4.3 10.4 0.00 0.00 0.00 73 1020.2
20260506215203 84 323 10.4 10.4 0.00 0.00 0.00 74 1020.2
20260506215103 84 17 7.8 10.4 0.00 0.00 0.00 74 1020.2
20260506215002 84 355 7.0 10.4 0.00 0.00 0.00 74 1020.2
20260506214902 84 298 7.8 10.4 0.00 0.00 0.00 74 1020.3
20260506214803 84 5 5.2 10.4 0.00 0.00 0.00 74 1020.3
20260506214703 84 348 7.0 10.4 0.00 0.00 0.00 74 1020.2
20260506214602 84 342 7.8 10.4 0.00 0.00 0.00 73 1020.3
20260506214502 84 21 8.7 11.3 0.00 0.00 0.00 74 1020.3
20260506214402 84 341 4.3 11.3 0.00 0.00 0.00 74 1020.3
20260506214202 84 333 7.8 11.3 0.00 0.00 0.00 74 1020.3
20260506214104 84 340 3.5 11.3 0.00 0.00 0.00 75 1020.3
20260506214003 84 15 4.3 11.3 0.00 0.00 0.00 74 1020.3
20260506213804 84 294 7.0 11.3 0.00 0.00 0.00 74 1020.4
20260506213703 84 323 7.8 11.3 0.00 0.00 0.00 74 1020.3
20260506213605 84 5 4.3 9.6 0.00 0.00 0.00 74 1020.4
20260506213403 83 327 7.0 10.4 0.00 0.00 0.00 75 1020.3
20260506213303 83 19 6.1 11.3 0.00 0.00 0.00 74 1020.3
20260506213205 83 347 7.0 11.3 0.00 0.00 0.00 74 1020.4
20260506213102 83 318 7.0 11.3 0.00 0.00 0.00 74 1020.2
20260506213002 83 317 7.0 11.3 0.00 0.00 0.00 74 1020.4
20260506212902 83 355 5.2 11.3 0.00 0.00 0.00 75 1020.3
20260506212802 83 355 3.5 11.3 0.00 0.00 0.00 75 1020.4
20260506212705 83 332 9.6 11.3 0.00 0.00 0.00 74 1020.3
20260506212603 83 340 7.8 11.3 0.00 0.00 0.00 74 1020.4
20260506212504 83 329 7.0 11.3 0.00 0.00 0.00 74 1020.4
20260506212404 83 322 5.2 11.3 0.00 0.00 0.00 75 1020.4
20260506212306 83 317 7.8 11.3 0.00 0.00 0.00 75 1020.5
20260506212203 83 336 3.5 10.4 0.00 0.00 0.00 74 1020.3
20260506212102 83 9 3.5 10.4 0.00 0.00 0.00 74 1020.5
20260506212003 83 317 10.4 10.4 0.00 0.00 0.00 74 1020.4
20260506211904 83 11 7.0 10.4 0.00 0.00 0.00 74 1020.4
20260506211702 83 342 5.2 10.4 0.00 0.00 0.00 75 1020.5
20260506211502 83 329 4.3 10.4 0.00 0.00 0.00 75 1020.4
20260506211304 83 304 6.1 10.4 0.00 0.00 0.00 74 1020.5
20260506211202 83 5 8.7 10.4 0.00 0.00 0.00 74 1020.5
20260506210802 83 336 8.7 9.6 0.00 0.00 0.00 75 1020.6
20260506210701 82 9 6.1 9.6 0.00 0.00 0.00 74 1020.6
20260506210600 83 355 9.6 9.6 0.00 0.00 0.00 74 1020.6
20260506210501 83 355 3.5 9.6 0.00 0.00 0.00 74 1020.7
20260506210402 83 326 5.2 8.7 0.00 0.00 0.00 75 1020.6
20260506210303 83 290 6.1 9.6 0.00 0.00 0.00 75 1020.6
20260506210201 82 28 4.3 10.4 0.00 0.00 0.00 75 1020.6
20260506210004 82 5 5.2 10.4 0.00 0.00 0.00 75 1020.6
20260506205902 82 355 7.0 10.4 0.00 0.00 0.00 75 1020.6
20260506205808 82 355 5.2 10.4 0.00 0.00 0.00 75 1020.7
20260506205603 82 339 4.3 10.4 0.00 0.00 0.00 75 1020.6
20260506205403 82 16 7.8 10.4 0.00 0.00 0.00 75 1020.6
20260506205305 82 335 4.3 9.6 0.00 0.00 0.00 75 1020.6
20260506205102 83 338 5.2 9.6 0.00 0.00 0.00 74 1020.6
20260506205003 82 339 4.3 9.6 0.00 0.00 0.00 75 1020.5
20260506204903 82 343 9.6 10.4 0.00 0.00 0.00 75 1020.6
20260506204803 82 340 7.0 10.4 0.00 0.00 0.00 75 1020.5
20260506204501 82 297 7.0 10.4 0.00 0.00 0.00 76 1020.5
20260506204302 82 320 8.7 11.3 0.00 0.00 0.00 75 1020.5
20260506204209 82 351 8.7 11.3 0.00 0.00 0.00 74 1020.5
20260506204104 82 327 5.2 11.3 0.00 0.00 0.00 75 1020.6
20260506204002 82 325 8.7 11.3 0.00 0.00 0.00 74 1020.5
20260506203900 82 314 4.3 11.3 0.00 0.00 0.00 74 1020.5
20260506203803 82 355 7.0 11.3 0.00 0.00 0.00 75 1020.6
20260506203703 82 336 8.7 11.3 0.00 0.00 0.00 75 1020.6
20260506203603 82 355 8.7 11.3 0.00 0.00 0.00 75 1020.6
20260506203505 82 326 8.7 11.3 0.00 0.00 0.00 75 1020.6
20260506203409 82 323 7.0 10.4 0.00 0.00 0.00 75 1020.5
20260506203302 82 297 7.8 10.4 0.00 0.00 0.00 75 1020.5
20260506203202 82 14 3.5 10.4 0.00 0.00 0.00 75 1020.6
20260506203103 82 327 7.0 10.4 0.00 0.00 0.00 74 1020.5
20260506203004 82 345 7.0 10.4 0.00 0.00 0.00 74 1020.6
20260506202902 82 324 7.0 10.4 0.00 0.00 0.00 74 1020.5
20260506202805 83 327 10.4 10.4 0.00 0.00 0.00 73 1020.6
20260506202704 83 338 4.3 9.6 0.00 0.00 0.00 74 1020.6
20260506202602 82 347 4.3 9.6 0.00 0.00 0.00 74 1020.6
20260506202504 82 333 7.0 9.6 0.00 0.00 0.00 74 1020.6
20260506202404 82 338 7.8 9.6 0.00 0.00 0.00 74 1020.5
20260506202306 82 15 7.0 9.6 0.00 0.00 0.00 74 1020.5
20260506202203 82 346 4.3 9.6 0.00 0.00 0.00 74 1020.6
20260506202104 82 360 7.8 9.6 0.00 0.00 0.00 74 1020.5
20260506202003 82 26 5.2 9.6 0.00 0.00 0.00 74 1020.5
20260506201904 82 321 5.2 9.6 0.00 0.00 0.00 74 1020.5
20260506201804 82 336 3.5 9.6 0.00 0.00 0.00 75 1020.4
20260506201702 82 26 4.3 9.6 0.00 0.00 0.00 75 1020.5
20260506201603 82 318 7.8 9.6 0.00 0.00 0.00 75 1020.5
20260506201502 82 319 4.3 9.6 0.00 0.00 0.00 75 1020.5
20260506201403 82 360 7.8 9.6 0.00 0.00 0.00 75 1020.5
20260506201303 81 19 3.5 9.6 0.00 0.00 0.00 75 1020.5
20260506201204 81 290 4.3 9.6 0.00 0.00 0.00 75 1020.4
20260506201104 81 289 4.3 9.6 0.00 0.00 0.00 75 1020.4
20260506201004 81 319 2.6 8.7 0.00 0.00 0.00 75 1020.4
20260506200902 81 329 7.0 8.7 0.00 0.00 0.00 75 1020.4
20260506200802 81 290 7.0 8.7 0.00 0.00 0.00 76 1020.4
20260506200702 81 314 3.5 8.7 0.00 0.00 0.00 75 1020.4
20260506200603 81 338 7.8 8.7 0.00 0.00 0.00 76 1020.4
20260506200404 81 360 4.3 9.6 0.00 0.00 0.00 77 1020.4
20260506200202 81 305 6.1 9.6 0.00 0.00 0.00 76 1020.4
20260506200002 81 309 6.1 9.6 0.00 0.00 0.00 76 1020.5
20260506195904 81 314 7.0 9.6 0.00 0.00 0.00 76 1020.5
20260506195602 81 304 2.6 9.6 0.00 0.00 0.00 76 1020.5
20260506195502 81 337 5.2 7.8 0.00 0.00 0.00 77 1020.5
20260506195402 81 269 2.6 7.8 0.00 0.00 0.00 76 1020.5
20260506195305 81 261 0.9 7.8 0.00 0.00 0.00 76 1020.6
20260506195201 81 305 7.0 7.8 0.00 0.00 0.00 76 1020.6
20260506195103 81 280 6.1 7.8 0.00 0.00 0.00 77 1020.5
20260506195000 81 306 4.3 7.8 0.00 0.00 0.00 76 1020.5
20260506194901 81 309 2.6 7.8 0.00 0.00 0.00 76 1020.5
20260506194800 81 289 7.0 7.8 0.00 0.00 0.00 75 1020.5
20260506194701 82 272 1.7 7.8 0.00 0.00 0.00 76 1020.5
20260506194602 82 319 4.3 7.8 0.00 0.00 0.00 76 1020.5
20260506194501 82 330 5.2 7.8 0.00 0.00 0.00 75 1020.5
20260506194403 82 318 2.6 7.8 0.00 0.00 0.00 75 1020.5
20260506194202 82 39 5.2 7.8 0.00 0.00 0.00 76 1020.5
20260506194101 82 19 7.0 7.8 0.00 0.00 0.00 75 1020.5
20260506194001 81 26 3.5 7.8 0.00 0.00 0.00 75 1020.5
20260506193902 81 23 2.6 7.8 0.00 0.00 0.00 75 1020.6
20260506193802 82 17 7.0 7.0 0.00 0.00 0.00 75 1020.6
20260506193502 81 360 2.6 7.8 0.00 0.00 0.00 75 1020.6
20260506193402 81 334 4.3 7.8 0.00 0.00 0.00 76 1020.6
20260506193301 81 360 4.3 7.8 0.00 0.00 0.00 76 1020.6
20260506193100 81 313 4.3 7.8 0.00 0.00 0.00 75 1020.5
20260506192903 81 330 2.6 7.8 0.00 0.00 0.00 75 1020.6
20260506192703 81 360 5.2 7.8 0.00 0.00 0.00 75 1020.6
20260506192609 81 325 4.3 7.8 0.00 0.00 0.00 75 1020.5
20260506192501 81 9 4.3 7.8 0.00 0.00 0.00 75 1020.5
20260506192400 81 5 4.3 7.8 0.00 0.00 0.00 75 1020.5
20260506192305 81 355 2.6 7.8 0.00 0.00 0.00 75 1020.5
20260506192201 81 269 2.6 7.8 0.00 0.00 0.00 75 1020.5
20260506192101 81 333 4.3 7.8 0.00 0.00 0.00 75 1020.5
20260506191701 81 317 2.6 7.0 0.00 0.00 0.00 75 1020.5
20260506191602 81 22 4.3 7.0 0.00 0.00 0.00 75 1020.4
20260506191503 81 325 3.5 7.0 0.00 0.00 0.00 75 1020.5
20260506191403 81 5 4.3 7.0 0.00 0.00 0.00 75 1020.5
20260506191302 81 5 4.3 7.0 0.00 0.00 0.00 76 1020.4
20260506191201 80 342 4.3 7.0 0.00 0.00 0.00 75 1020.4
20260506191003 80 309 3.5 7.0 0.00 0.00 0.00 76 1020.4
20260506190902 80 349 2.6 7.0 0.00 0.00 0.00 76 1020.4
20260506190759 80 326 5.2 7.0 0.00 0.00 0.00 76 1020.4
20260506190705 80 327 4.3 7.0 0.00 0.00 0.00 76 1020.4
20260506190603 80 319 5.2 7.0 0.00 0.00 0.00 76 1020.4
20260506190303 80 347 3.5 7.8 0.00 0.00 0.00 76 1020.4
20260506190201 80 336 3.5 7.8 0.00 0.00 0.00 77 1020.4
20260506190002 79 344 3.5 7.8 0.00 0.00 0.00 76 1020.3
20260506185900 79 355 3.5 7.8 0.00 0.00 0.00 76 1020.4
20260506185702 79 5 2.6 7.8 0.00 0.00 0.00 76 1020.4
20260506185602 79 300 3.5 7.8 0.00 0.00 0.00 76 1020.4
20260506185503 80 325 4.3 7.8 0.00 0.00 0.00 76 1020.3
20260506185405 80 316 3.5 7.0 0.00 0.00 0.00 77 1020.3
20260506185306 80 310 4.3 7.0 0.00 0.00 0.00 77 1020.3
20260506185202 79 360 2.6 7.0 0.00 0.00 0.00 77 1020.3
20260506185102 79 344 2.6 7.0 0.00 0.00 0.00 77 1020.2
20260506185001 79 345 3.5 5.2 0.00 0.00 0.00 77 1020.3
20260506184802 79 325 0.9 5.2 0.00 0.00 0.00 77 1020.3
20260506184701 79 320 4.3 5.2 0.00 0.00 0.00 77 1020.3
20260506184601 79 329 1.7 5.2 0.00 0.00 0.00 77 1020.4
20260506184401 79 17 2.6 5.2 0.00 0.00 0.00 76 1020.3
20260506184201 79 360 4.3 5.2 0.00 0.00 0.00 76 1020.3
20260506184101 79 355 4.3 6.1 0.00 0.00 0.00 76 1020.2
20260506184000 79 309 1.7 6.1 0.00 0.00 0.00 76 1020.2
20260506183802 79 326 3.5 5.2 0.00 0.00 0.00 76 1020.2
20260506183701 79 307 2.6 5.2 0.00 0.00 0.00 76 1020.2
20260506183601 79 299 4.3 5.2 0.00 0.00 0.00 76 1020.3
20260506183501 79 317 1.7 5.2 0.00 0.00 0.00 76 1020.2
20260506183402 79 332 2.6 5.2 0.00 0.00 0.00 76 1020.2
20260506183302 79 329 5.2 5.2 0.00 0.00 0.00 76 1020.2
20260506183101 79 313 1.7 6.1 0.00 0.00 0.00 77 1020.2
20260506183002 79 312 3.5 7.0 0.00 0.00 0.00 77 1020.2
20260506182803 79 290 2.6 7.0 0.00 0.00 0.00 77 1020.2
20260506182701 78 301 3.5 7.0 0.00 0.00 0.00 77 1020.2
20260506182601 78 355 0.9 7.0 0.00 0.00 0.00 77 1020.1
20260506182503 78 302 2.6 7.0 0.00 0.00 0.00 77 1020.1
20260506182401 78 299 1.7 7.0 0.00 0.00 0.00 76 1020.1
20260506182203 79 306 4.3 7.0 0.00 0.00 0.00 76 1020.1
20260506182003 79 283 2.6 3.5 0.00 0.00 0.00 76 1020.1
20260506181900 79 328 2.6 3.5 0.00 0.00 0.00 76 1020.1
20260506181801 78 346 3.5 3.5 0.00 0.00 0.00 75 1020.1
20260506181601 79 298 1.7 3.5 0.00 0.00 0.00 75 1020.1
20260506181503 79 312 2.6 3.5 0.00 0.00 0.00 74 1020.0
20260506181402 79 20 2.6 4.3 0.00 0.00 0.00 74 1020.0
20260506181301 79 37 1.7 4.3 0.00 0.00 0.00 75 1020.0
20260506181203 79 25 2.6 4.3 0.00 0.00 0.00 75 1020.0
20260506181102 79 299 2.6 4.3 0.00 0.00 0.00 75 1020.0
20260506180902 78 9 1.7 4.3 0.00 0.00 0.00 75 1019.9
20260506180803 78 16 2.6 4.3 0.00 0.00 0.00 75 1019.9
20260506180701 78 327 2.6 4.3 0.00 0.00 0.00 75 1020.0
20260506180502 78 337 2.6 4.3 0.00 0.00 0.00 75 1019.9
20260506180402 78 341 1.7 4.3 0.00 0.00 0.00 75 1019.9
20260506180203 78 355 3.5 4.3 0.00 0.00 0.00 75 1019.9
20260506180101 78 342 0.9 4.3 0.00 0.00 0.00 75 1019.9
20260506175900 77 355 2.6 4.3 0.00 0.00 0.00 75 1019.9
20260506175801 77 344 3.5 4.3 0.00 0.00 0.00 75 1019.8
20260506175704 78 299 2.6 4.3 0.00 0.00 0.00 74 1019.9
20260506175603 78 320 0.9 4.3 0.00 0.00 0.00 75 1019.9
20260506175503 78 317 3.5 4.3 0.00 0.00 0.00 75 1019.9
20260506175306 77 5 2.6 3.5 0.00 0.00 0.00 75 1019.9
20260506175103 77 139 0.9 1.7 0.00 0.00 0.00 76 1019.9
20260506175000 77 139 0.0 1.7 0.00 0.00 0.00 76 1019.9
20260506174902 77 139 0.0 1.7 0.00 0.00 0.00 76 1019.9
20260506174802 76 139 0.9 1.7 0.00 0.00 0.00 76 1019.8
20260506174705 76 139 0.9 1.7 0.00 0.00 0.00 77 1019.9
20260506174602 76 139 0.0 0.9 0.00 0.00 0.00 77 1019.9
20260506174502 76 139 0.0 0.9 0.00 0.00 0.00 78 1019.9
20260506174402 76 139 0.0 0.9 0.00 0.00 0.00 78 1019.8
20260506174304 76 139 0.0 0.9 0.00 0.00 0.00 78 1019.9
20260506174202 75 139 0.9 0.9 0.00 0.00 0.00 77 1019.7
20260506174102 75 139 0.0 0.9 0.00 0.00 0.00 78 1019.8
20260506174002 75 139 0.0 0.9 0.00 0.00 0.00 79 1019.7
20260506173903 75 139 0.0 0.9 0.00 0.00 0.00 79 1019.7
20260506173802 75 139 0.0 2.6 0.00 0.00 0.00 79 1019.7
20260506173701 75 139 0.0 2.6 0.00 0.00 0.00 79 1019.7
20260506173502 74 139 0.0 2.6 0.00 0.00 0.00 81 1019.6
20260506173303 74 139 0.0 2.6 0.00 0.00 0.00 81 1019.6
20260506173208 74 139 0.0 2.6 0.00 0.00 0.00 81 1019.6
20260506173102 74 139 0.0 2.6 0.00 0.00 0.00 81 1019.6
20260506173003 74 139 0.0 2.6 0.00 0.00 0.00 82 1019.6
20260506172901 74 139 0.0 2.6 0.00 0.00 0.00 82 1019.7
20260506172802 73 139 2.6 2.6 0.00 0.00 0.00 82 1019.6
20260506172602 73 139 1.7 1.7 0.00 0.00 0.00 83 1019.6
20260506172501 73 139 1.7 1.7 0.00 0.00 0.00 83 1019.7
20260506172400 73 139 0.9 1.7 0.00 0.00 0.00 83 1019.6
20260506172202 72 139 0.0 0.0 0.00 0.00 0.00 84 1019.7
20260506172102 72 139 0.0 0.0 0.00 0.00 0.00 84 1019.6
20260506172001 72 139 0.0 0.0 0.00 0.00 0.00 85 1019.6
20260506171902 72 139 0.0 0.0 0.00 0.00 0.00 85 1019.6
20260506171802 72 139 0.0 0.0 0.00 0.00 0.00 84 1019.6
20260506171702 72 139 0.0 0.0 0.00 0.00 0.00 85 1019.6
20260506171602 71 139 0.0 0.0 0.00 0.00 0.00 86 1019.6
20260506171502 71 139 0.0 0.0 0.00 0.00 0.00 86 1019.5
20260506171401 71 139 0.0 0.0 0.00 0.00 0.00 86 1019.5
20260506171300 71 139 0.0 0.0 0.00 0.00 0.00 87 1019.5
20260506171209 70 139 0.0 0.0 0.00 0.00 0.00 87 1019.5
20260506171001 70 139 0.0 0.0 0.00 0.00 0.00 88 1019.5
20260506170802 70 139 0.0 0.0 0.00 0.00 0.00 89 1019.4
20260506170702 69 139 0.0 0.0 0.00 0.00 0.00 89 1019.4
20260506170503 69 139 0.0 0.0 0.00 0.00 0.00 89 1019.4
20260506170400 69 139 0.0 0.0 0.00 0.00 0.00 89 1019.3
20260506170307 69 139 0.0 0.0 0.00 0.00 0.00 88 1019.5
20260506170201 69 139 0.0 0.0 0.00 0.00 0.00 88 1019.4
20260506165902 69 139 0.0 0.0 0.00 0.00 0.00 89 1019.4
20260506165804 68 139 0.0 0.0 0.00 0.00 0.00 89 1019.3
20260506165701 68 139 0.0 0.0 0.00 0.00 0.00 88 1019.2
20260506165502 68 139 0.0 0.0 0.00 0.00 0.00 88 1019.2
20260506165400 68 139 0.0 0.0 0.00 0.00 0.00 88 1019.2
20260506165203 68 139 0.0 0.0 0.00 0.00 0.00 88 1019.2
20260506165101 68 139 0.0 0.0 0.00 0.00 0.00 88 1019.2
20260506165001 68 139 0.0 0.0 0.00 0.00 0.00 88 1019.2
20260506164903 68 139 0.0 0.0 0.00 0.00 0.00 88 1019.2
20260506164801 68 139 0.0 0.0 0.00 0.00 0.00 88 1019.2
20260506164602 68 139 0.0 0.0 0.00 0.00 0.00 88 1019.2
20260506164502 68 139 0.0 0.0 0.00 0.00 0.00 88 1019.1
20260506164302 68 139 0.0 0.0 0.00 0.00 0.00 88 1019.1
20260506164201 68 139 0.0 0.0 0.00 0.00 0.00 88 1019.1
20260506164101 68 139 0.0 0.0 0.00 0.00 0.00 88 1019.1
20260506164003 68 139 0.0 0.9 0.00 0.00 0.00 88 1019.0
20260506163901 68 139 0.0 0.9 0.00 0.00 0.00 88 1019.1
20260506163801 67 139 0.0 0.9 0.00 0.00 0.00 88 1019.1
20260506163703 67 139 0.0 0.9 0.00 0.00 0.00 88 1019.1
20260506163602 67 139 0.0 0.9 0.00 0.00 0.00 88 1019.0
20260506163501 67 139 0.0 0.9 0.00 0.00 0.00 88 1019.1
20260506163304 67 139 0.0 0.9 0.00 0.00 0.00 88 1019.0
20260506163201 67 139 0.0 0.9 0.00 0.00 0.00 88 1019.0
20260506163101 67 139 0.0 0.9 0.00 0.00 0.00 88 1019.0
20260506163001 67 139 0.0 0.9 0.00 0.00 0.00 88 1019.0
20260506162902 67 139 0.0 0.9 0.00 0.00 0.00 88 1018.9
20260506162701 67 139 0.0 0.9 0.00 0.00 0.00 88 1018.9
20260506162602 67 139 0.0 0.9 0.00 0.00 0.00 88 1018.9
20260506162301 67 139 0.0 1.7 0.00 0.00 0.00 88 1018.9
20260506162201 67 139 0.0 2.6 0.00 0.00 0.00 88 1018.8
20260506162102 67 139 0.0 3.5 0.00 0.00 0.00 88 1018.8
20260506162002 67 139 0.0 3.5 0.00 0.00 0.00 88 1018.8
20260506161759 67 139 0.0 3.5 0.00 0.00 0.00 88 1018.7
20260506161709 67 139 0.0 3.5 0.00 0.00 0.00 88 1018.6
20260506161602 67 139 0.9 3.5 0.00 0.00 0.00 88 1018.8
20260506161501 67 139 0.9 3.5 0.00 0.00 0.00 88 1018.7
20260506161408 67 139 2.6 3.5 0.00 0.00 0.00 88 1018.7
20260506161202 67 139 1.7 3.5 0.00 0.00 0.00 88 1018.7
20260506161104 67 139 2.6 3.5 0.00 0.00 0.00 88 1018.8
20260506160902 67 139 0.0 1.7 0.00 0.00 0.00 88 1018.8
20260506160801 67 135 0.9 0.9 0.00 0.00 0.00 88 1018.8
20260506160700 67 135 0.9 0.9 0.00 0.00 0.00 88 1018.9
20260506160602 67 135 0.0 0.9 0.00 0.00 0.00 88 1018.9
20260506160501 67 135 0.0 0.9 0.00 0.00 0.00 88 1018.9
20260506160401 67 135 0.0 0.9 0.00 0.00 0.00 88 1018.9